KJ6MC Weather Reports


time (UTC)temp
C
wind
direction
speed
KPH
gust
KPH
rain 1hr
cm
rain 24hr
cm
rain mn
cm
humidity
%
barometer
mb
20260509224159 31 224 4.8 16.1 0.00 0.00 0.00 43 1010.6
20260509224059 31 219 3.2 16.1 0.00 0.00 0.00 44 1010.6
20260509223959 31 236 3.2 16.1 0.00 0.00 0.00 44 1010.6
20260509223908 31 232 3.2 16.1 0.00 0.00 0.00 43 1010.6
20260509223859 31 214 3.2 16.1 0.00 0.00 0.00 43 1010.6
20260509223758 31 231 3.2 16.1 0.00 0.00 0.00 43 1010.7
20260509223656 31 291 1.6 8.0 0.00 0.00 0.00 43 1010.7
20260509223630 32 305 3.2 14.5 0.00 0.00 0.00 43 1010.7
20260509223556 31 316 3.2 11.3 0.00 0.00 0.00 42 1010.6
20260509223517 32 4 3.2 14.5 0.00 0.00 0.00 43 1010.7
20260509223355 32 304 3.2 14.5 0.00 0.00 0.00 42 1010.7
20260509223252 32 304 3.2 14.5 0.00 0.00 0.00 42 1010.7
20260509223148 32 305 3.2 14.5 0.00 0.00 0.00 42 1010.7
20260509223046 32 305 4.8 14.5 0.00 0.00 0.00 41 1010.7
20260509222947 32 359 4.8 14.5 0.00 0.00 0.00 42 1010.7
20260509222919 32 0 4.8 14.5 0.00 0.00 0.00 42 1010.7
20260509222846 32 359 4.8 14.5 0.00 0.00 0.00 41 1010.7
20260509222746 32 318 4.8 14.5 0.00 0.00 0.00 42 1010.7
20260509222640 32 246 4.8 14.5 0.00 0.00 0.00 41 1010.7
20260509222621 32 353 3.2 12.9 0.00 0.00 0.00 41 1010.7
20260509222541 32 226 3.2 12.9 0.00 0.00 0.00 41 1010.7
20260509222515 32 316 3.2 12.9 0.00 0.00 0.00 41 1010.7
20260509222341 32 316 3.2 12.9 0.00 0.00 0.00 41 1010.8
20260509222240 32 212 3.2 12.9 0.00 0.00 0.00 41 1010.8
20260509222140 32 218 3.2 11.3 0.00 0.00 0.00 41 1010.8
20260509222130 32 225 3.2 8.0 0.00 0.00 0.00 41 1010.8
20260509222041 32 207 3.2 11.3 0.00 0.00 0.00 40 1010.8
20260509222015 32 214 3.2 11.3 0.00 0.00 0.00 40 1010.8
20260509221738 32 120 1.6 8.0 0.00 0.00 0.00 41 1010.9
20260509221631 32 283 1.6 8.0 0.00 0.00 0.00 40 1010.8
20260509221529 32 183 1.6 8.0 0.00 0.00 0.00 41 1010.9
20260509221404 32 319 1.6 8.0 0.00 0.00 0.00 39 1010.9
20260509221326 32 319 1.6 8.0 0.00 0.00 0.00 39 1010.8
20260509221224 32 319 1.6 8.0 0.00 0.00 0.00 39 1010.9
20260509221120 32 239 1.6 4.8 0.00 0.00 0.00 40 1010.9
20260509221021 32 236 1.6 6.4 0.00 0.00 0.00 39 1010.9
20260509220921 32 239 3.2 16.1 0.00 0.00 0.00 39 1010.9
20260509220904 32 212 3.2 20.9 0.00 0.00 0.00 39 1010.9
20260509220821 32 229 3.2 20.9 0.00 0.00 0.00 40 1010.9
20260509220718 32 229 3.2 20.9 0.00 0.00 0.00 41 1010.9
20260509220616 31 221 3.2 20.9 0.00 0.00 0.00 41 1010.9
20260509220517 31 217 3.2 20.9 0.00 0.00 0.00 41 1010.9
20260509220415 31 206 4.8 20.9 0.00 0.00 0.00 41 1010.9
20260509220351 31 198 4.8 20.9 0.00 0.00 0.00 42 1010.9
20260509220315 31 232 4.8 20.9 0.00 0.00 0.00 41 1010.9
20260509220212 31 232 4.8 20.9 0.00 0.00 0.00 41 1010.9
20260509220107 31 226 4.8 20.9 0.00 0.00 0.00 40 1010.9
20260509220006 31 169 3.2 20.9 0.00 0.00 0.00 39 1011.0
20260509215907 31 215 3.2 16.1 0.00 0.00 0.00 39 1010.9
20260509215846 31 274 3.2 11.3 0.00 0.00 0.00 39 1010.9
20260509215806 31 238 3.2 11.3 0.00 0.00 0.00 39 1010.9
20260509215706 31 136 3.2 11.3 0.00 0.00 0.00 38 1010.9
20260509215614 31 326 3.2 14.5 0.00 0.00 0.00 37 1011.0
20260509215607 31 321 3.2 11.3 0.00 0.00 0.00 37 1010.9
20260509215504 31 321 3.2 14.5 0.00 0.00 0.00 37 1010.9
20260509215450 31 336 3.2 14.5 0.00 0.00 0.00 37 1010.9
20260509215305 31 4 3.2 14.5 0.00 0.00 0.00 37 1011.0
20260509215200 31 335 3.2 14.5 0.00 0.00 0.00 36 1011.0
20260509215059 31 333 3.2 14.5 0.00 0.00 0.00 37 1011.0
20260509214958 31 287 3.2 14.5 0.00 0.00 0.00 37 1011.0
20260509214859 31 263 3.2 14.5 0.00 0.00 0.00 37 1011.0
20260509214834 31 229 3.2 14.5 0.00 0.00 0.00 39 1011.0
20260509214757 31 229 3.2 14.5 0.00 0.00 0.00 38 1011.0
20260509214654 31 229 3.2 14.5 0.00 0.00 0.00 38 1011.0
20260509214549 31 238 3.2 14.5 0.00 0.00 0.00 38 1011.0
20260509214448 31 231 3.2 12.9 0.00 0.00 0.00 38 1011.1
20260509214349 31 314 3.2 12.9 0.00 0.00 0.00 37 1011.1
20260509214329 31 302 3.2 16.1 0.00 0.00 0.00 38 1011.1
20260509214249 31 319 3.2 16.1 0.00 0.00 0.00 38 1011.1
20260509214148 31 350 3.2 16.1 0.00 0.00 0.00 39 1011.1
20260509214044 31 319 3.2 16.1 0.00 0.00 0.00 39 1011.1
20260509213945 31 319 3.2 16.1 0.00 0.00 0.00 38 1011.1
20260509213844 31 321 3.2 16.1 0.00 0.00 0.00 38 1011.2
20260509213822 31 321 3.2 16.1 0.00 0.00 0.00 37 1011.2
20260509213744 31 320 3.2 16.1 0.00 0.00 0.00 38 1011.2
20260509213642 31 284 3.2 16.1 0.00 0.00 0.00 38 1011.2
20260509213538 31 264 3.2 16.1 0.00 0.00 0.00 38 1011.2
20260509213438 31 344 3.2 16.1 0.00 0.00 0.00 37 1011.2
20260509213338 31 357 3.2 16.1 0.00 0.00 0.00 37 1011.3
20260509213315 31 328 3.2 11.3 0.00 0.00 0.00 39 1011.3
20260509213238 31 314 3.2 11.3 0.00 0.00 0.00 39 1011.3
20260509213136 31 296 3.2 11.3 0.00 0.00 0.00 38 1011.3
20260509213031 31 262 1.6 11.3 0.00 0.00 0.00 38 1011.3
20260509212930 31 5 1.6 11.3 0.00 0.00 0.00 39 1011.3
20260509212810 31 226 3.2 11.3 0.00 0.00 0.00 39 1011.4
20260509212731 31 226 3.2 11.3 0.00 0.00 0.00 39 1011.4
20260509212630 31 226 3.2 11.3 0.00 0.00 0.00 41 1011.5
20260509212525 31 226 3.2 11.3 0.00 0.00 0.00 38 1011.5
20260509212424 31 298 3.2 11.3 0.00 0.00 0.00 38 1011.4
20260509212324 31 318 3.2 11.3 0.00 0.00 0.00 38 1011.5
20260509212306 31 309 3.2 11.3 0.00 0.00 0.00 39 1011.5
20260509212224 31 322 3.2 11.3 0.00 0.00 0.00 39 1011.5
20260509212123 31 231 3.2 12.9 0.00 0.00 0.00 40 1011.5
20260509212024 30 210 3.2 12.9 0.00 0.00 0.00 42 1011.5
20260509212018 31 302 3.2 12.9 0.00 0.00 0.00 39 1011.5
20260509211924 30 201 3.2 12.9 0.00 0.00 0.00 40 1011.5
20260509211910 30 219 3.2 12.9 0.00 0.00 0.00 41 1011.5
20260509211719 30 285 3.2 12.9 0.00 0.00 0.00 42 1011.5
20260509211618 30 285 3.2 12.9 0.00 0.00 0.00 40 1011.5
20260509211518 30 340 3.2 12.9 0.00 0.00 0.00 40 1011.6
20260509211417 31 337 1.6 12.9 0.00 0.00 0.00 42 1011.6
20260509211317 31 352 1.6 12.9 0.00 0.00 0.00 41 1011.5
20260509211251 31 351 1.6 12.9 0.00 0.00 0.00 42 1011.5
20260509211214 31 311 3.2 12.9 0.00 0.00 0.00 42 1011.6
20260509211113 31 332 3.2 12.9 0.00 0.00 0.00 42 1011.6
20260509211014 30 307 3.2 12.9 0.00 0.00 0.00 44 1011.7
20260509211009 31 308 3.2 12.9 0.00 0.00 0.00 42 1011.6
20260509210909 31 318 3.2 12.9 0.00 0.00 0.00 43 1011.6
20260509210857 30 318 3.2 12.9 0.00 0.00 0.00 44 1011.6
20260509210708 30 321 3.2 12.9 0.00 0.00 0.00 44 1011.7
20260509210606 30 8 3.2 12.9 0.00 0.00 0.00 42 1011.6
20260509210504 30 334 3.2 12.9 0.00 0.00 0.00 44 1011.7
20260509210405 30 282 3.2 12.9 0.00 0.00 0.00 42 1011.7
20260509210303 30 23 1.6 12.9 0.00 0.00 0.00 42 1011.7
20260509210240 30 349 1.6 12.9 0.00 0.00 0.00 42 1011.7
20260509210203 30 302 1.6 12.9 0.00 0.00 0.00 42 1011.7
20260509210100 30 351 1.6 9.7 0.00 0.00 0.00 42 1011.7
20260509210001 30 34 1.6 9.7 0.00 0.00 0.00 41 1011.7
20260509205901 31 284 1.6 9.7 0.00 0.00 0.00 41 1011.8
20260509205759 31 304 1.6 9.7 0.00 0.00 0.00 43 1011.7
20260509205735 31 43 1.6 9.7 0.00 0.00 0.00 45 1011.7
20260509205656 31 242 1.6 9.7 0.00 0.00 0.00 45 1011.7
20260509205554 30 333 1.6 9.7 0.00 0.00 0.00 42 1011.8
20260509205448 30 352 1.6 9.7 0.00 0.00 0.00 45 1011.8
20260509205349 30 231 1.6 8.0 0.00 0.00 0.00 46 1011.8
20260509205229 30 231 3.2 8.0 0.00 0.00 0.00 45 1011.8
20260509205148 30 245 3.2 8.0 0.00 0.00 0.00 45 1011.8
20260509205048 30 295 3.2 8.0 0.00 0.00 0.00 47 1011.8
20260509204944 30 307 3.2 8.0 0.00 0.00 0.00 47 1011.8
20260509204842 30 305 3.2 8.0 0.00 0.00 0.00 46 1011.8
20260509204743 30 40 3.2 8.0 0.00 0.00 0.00 46 1011.8
20260509204723 30 52 1.6 8.0 0.00 0.00 0.00 46 1011.8
20260509204642 30 321 1.6 8.0 0.00 0.00 0.00 47 1011.8
20260509204542 30 203 1.6 6.4 0.00 0.00 0.00 47 1011.9
20260509204440 30 337 1.6 6.4 0.00 0.00 0.00 46 1011.9
20260509204346 30 321 1.6 6.4 0.00 0.00 0.00 46 1011.9
20260509204239 30 311 1.6 6.4 0.00 0.00 0.00 46 1011.9
20260509204216 30 316 1.6 6.4 0.00 0.00 0.00 46 1011.9
20260509204139 30 316 1.6 6.4 0.00 0.00 0.00 45 1011.9
20260509204036 30 321 1.6 4.8 0.00 0.00 0.00 46 1011.9
20260509203941 30 314 1.6 6.4 0.00 0.00 0.00 47 1012.0
20260509203932 30 224 1.6 6.4 0.00 0.00 0.00 46 1012.0
20260509203833 30 315 1.6 6.4 0.00 0.00 0.00 47 1012.0
20260509203821 30 315 1.6 6.4 0.00 0.00 0.00 47 1012.0
20260509203633 30 315 1.6 6.4 0.00 0.00 0.00 48 1012.0
20260509203530 30 354 1.6 6.4 0.00 0.00 0.00 48 1012.0
20260509203428 30 340 1.6 6.4 0.00 0.00 0.00 46 1012.0
20260509203329 30 295 1.6 6.4 0.00 0.00 0.00 47 1012.0
20260509203206 30 295 1.6 6.4 0.00 0.00 0.00 48 1012.0
20260509203126 30 295 1.6 6.4 0.00 0.00 0.00 49 1012.0
20260509203024 30 228 1.6 6.4 0.00 0.00 0.00 48 1012.0
20260509202926 30 229 1.6 6.4 0.00 0.00 0.00 48 1012.0
20260509202921 30 221 1.6 6.4 0.00 0.00 0.00 48 1012.0
20260509202819 30 346 1.6 6.4 0.00 0.00 0.00 48 1012.0
20260509202808 30 228 1.6 6.4 0.00 0.00 0.00 48 1012.0
20260509202618 30 316 1.6 4.8 0.00 0.00 0.00 47 1012.0
20260509202518 30 296 1.6 4.8 0.00 0.00 0.00 48 1012.1
20260509202413 30 296 1.6 4.8 0.00 0.00 0.00 49 1012.1
20260509202313 30 222 1.6 4.8 0.00 0.00 0.00 49 1012.1
20260509202212 30 222 1.6 4.8 0.00 0.00 0.00 49 1012.1
20260509202156 30 225 1.6 4.8 0.00 0.00 0.00 49 1012.1
20260509202113 30 124 1.6 4.8 0.00 0.00 0.00 49 1012.1
20260509202012 30 240 1.6 4.8 0.00 0.00 0.00 50 1012.1
20260509201909 30 240 1.6 4.8 0.00 0.00 0.00 51 1012.2
20260509201809 30 241 1.6 4.8 0.00 0.00 0.00 51 1012.2
20260509201709 30 240 1.6 8.0 0.00 0.00 0.00 51 1012.1
20260509201645 30 277 1.6 8.0 0.00 0.00 0.00 51 1012.1
20260509201608 29 275 1.6 8.0 0.00 0.00 0.00 51 1012.1
20260509201507 29 194 1.6 8.0 0.00 0.00 0.00 51 1012.1
20260509201404 29 150 1.6 8.0 0.00 0.00 0.00 50 1012.1
20260509201304 29 144 1.6 8.0 0.00 0.00 0.00 50 1012.2
20260509201203 29 232 1.6 8.0 0.00 0.00 0.00 52 1012.2
20260509201141 29 329 1.6 8.0 0.00 0.00 0.00 52 1012.2
20260509201103 29 328 1.6 8.0 0.00 0.00 0.00 51 1012.2
20260509201001 29 44 1.6 8.0 0.00 0.00 0.00 51 1012.2
20260509200858 29 296 1.6 8.0 0.00 0.00 0.00 50 1012.2
20260509200759 29 296 1.6 8.0 0.00 0.00 0.00 52 1012.3
20260509200659 28 217 1.6 3.2 0.00 0.00 0.00 52 1012.3
20260509200636 28 217 1.6 3.2 0.00 0.00 0.00 52 1012.2
20260509200557 28 217 1.6 3.2 0.00 0.00 0.00 52 1012.2
20260509200454 28 193 1.6 3.2 0.00 0.00 0.00 53 1012.3
20260509200353 28 236 1.6 8.0 0.00 0.00 0.00 54 1012.3
20260509200349 28 236 1.6 3.2 0.00 0.00 0.00 54 1012.3
20260509200249 28 236 1.6 3.2 0.00 0.00 0.00 53 1012.3
20260509200240 28 236 1.6 8.0 0.00 0.00 0.00 54 1012.4
20260509200049 28 225 1.6 8.0 0.00 0.00 0.00 55 1012.3
20260509195948 28 225 3.2 8.0 0.00 0.00 0.00 55 1012.3
20260509195852 28 224 3.2 11.3 0.00 0.00 0.00 55 1012.3
20260509195747 28 278 3.2 11.3 0.00 0.00 0.00 54 1012.3
20260509195622 28 311 3.2 11.3 0.00 0.00 0.00 55 1012.4
20260509195545 28 311 3.2 11.3 0.00 0.00 0.00 56 1012.4
20260509195442 27 311 3.2 11.3 0.00 0.00 0.00 56 1012.4
20260509195337 27 310 3.2 11.3 0.00 0.00 0.00 55 1012.5
20260509195237 28 314 3.2 11.3 0.00 0.00 0.00 54 1012.5
20260509195136 28 300 3.2 11.3 0.00 0.00 0.00 53 1012.5
20260509195116 28 309 3.2 11.3 0.00 0.00 0.00 53 1012.5
20260509195036 28 319 3.2 11.3 0.00 0.00 0.00 55 1012.5
20260509194936 28 318 3.2 11.3 0.00 0.00 0.00 54 1012.5
20260509194839 28 307 3.2 9.7 0.00 0.00 0.00 55 1012.5
20260509194830 28 65 3.2 9.7 0.00 0.00 0.00 54 1012.6
20260509194737 28 297 3.2 9.7 0.00 0.00 0.00 54 1012.5
20260509194721 28 102 3.2 9.7 0.00 0.00 0.00 54 1012.6
20260509194533 28 34 3.2 9.7 0.00 0.00 0.00 55 1012.5
20260509194430 28 8 3.2 9.7 0.00 0.00 0.00 55 1012.5
20260509194326 27 233 3.2 9.7 0.00 0.00 0.00 56 1012.6
20260509194224 27 246 3.2 9.7 0.00 0.00 0.00 54 1012.6
20260509194125 28 136 3.2 9.7 0.00 0.00 0.00 54 1012.5
20260509194112 28 211 3.2 9.7 0.00 0.00 0.00 54 1012.5
20260509194025 28 236 1.6 9.7 0.00 0.00 0.00 54 1012.6
20260509193924 28 222 1.6 8.0 0.00 0.00 0.00 54 1012.6
20260509193818 28 236 1.6 9.7 0.00 0.00 0.00 54 1012.7
20260509193718 28 245 1.6 9.7 0.00 0.00 0.00 55 1012.6
20260509193619 28 311 1.6 9.7 0.00 0.00 0.00 55 1012.7
20260509193558 28 311 1.6 9.7 0.00 0.00 0.00 55 1012.7
20260509193519 28 311 1.6 9.7 0.00 0.00 0.00 56 1012.7
20260509193418 28 311 1.6 9.7 0.00 0.00 0.00 56 1012.7
20260509193319 27 259 3.2 9.7 0.00 0.00 0.00 56 1012.7
20260509193315 28 314 1.6 9.7 0.00 0.00 0.00 56 1012.7
20260509193213 28 314 3.2 9.7 0.00 0.00 0.00 56 1012.7
20260509193204 27 309 3.2 9.7 0.00 0.00 0.00 56 1012.7
20260509193013 27 231 3.2 9.7 0.00 0.00 0.00 56 1012.7
20260509192912 27 219 3.2 9.7 0.00 0.00 0.00 55 1012.7
20260509192808 27 217 3.2 9.7 0.00 0.00 0.00 56 1012.7
20260509192708 27 142 3.2 9.7 0.00 0.00 0.00 55 1012.7
20260509192609 27 143 3.2 9.7 0.00 0.00 0.00 56 1012.8
20260509192548 27 143 3.2 9.7 0.00 0.00 0.00 56 1012.8
20260509192509 27 210 3.2 9.7 0.00 0.00 0.00 57 1012.8
20260509192406 27 200 3.2 9.7 0.00 0.00 0.00 56 1012.8
20260509192305 27 214 3.2 9.7 0.00 0.00 0.00 55 1012.9
20260509192200 27 243 1.6 9.7 0.00 0.00 0.00 56 1012.9
20260509192101 27 197 1.6 9.7 0.00 0.00 0.00 56 1012.9
20260509192040 27 228 1.6 9.7 0.00 0.00 0.00 56 1012.9
20260509192000 27 248 1.6 8.0 0.00 0.00 0.00 57 1012.9
20260509191901 27 141 1.6 3.2 0.00 0.00 0.00 58 1012.9
20260509191756 27 300 1.6 6.4 0.00 0.00 0.00 57 1012.9
20260509191654 27 300 1.6 6.4 0.00 0.00 0.00 57 1012.9
20260509191535 27 232 1.6 6.4 0.00 0.00 0.00 57 1012.9
20260509191454 27 230 1.6 6.4 0.00 0.00 0.00 57 1012.9
20260509191355 27 232 1.6 6.4 0.00 0.00 0.00 57 1013.0
20260509191251 27 232 1.6 6.4 0.00 0.00 0.00 56 1013.0
20260509191151 27 232 1.6 6.4 0.00 0.00 0.00 57 1013.0
20260509191050 27 229 1.6 6.4 0.00 0.00 0.00 58 1013.0
20260509191030 27 230 1.6 6.4 0.00 0.00 0.00 57 1013.0
20260509190951 27 229 1.6 6.4 0.00 0.00 0.00 57 1013.0
20260509190851 27 282 1.6 9.7 0.00 0.00 0.00 58 1013.1
20260509190747 27 211 1.6 9.7 0.00 0.00 0.00 59 1013.1
20260509190742 27 211 1.6 9.7 0.00 0.00 0.00 58 1013.1
20260509190642 27 211 1.6 9.7 0.00 0.00 0.00 58 1013.0
20260509190633 27 211 1.6 9.7 0.00 0.00 0.00 59 1013.1
20260509190442 27 211 1.6 9.7 0.00 0.00 0.00 60 1013.1
20260509190342 27 212 3.2 9.7 0.00 0.00 0.00 59 1013.0
20260509190238 26 211 1.6 9.7 0.00 0.00 0.00 59 1013.1
20260509190139 26 238 1.6 9.7 0.00 0.00 0.00 59 1013.0
20260509190017 26 151 1.6 9.7 0.00 0.00 0.00 59 1013.1
20260509185938 26 253 1.6 9.7 0.00 0.00 0.00 58 1013.1
20260509185836 26 248 1.6 6.4 0.00 0.00 0.00 59 1013.1
20260509185737 26 150 1.6 6.4 0.00 0.00 0.00 59 1013.1
20260509185635 26 153 1.6 6.4 0.00 0.00 0.00 59 1013.1
20260509185535 26 317 1.6 6.4 0.00 0.00 0.00 58 1013.2
20260509185511 26 316 1.6 6.4 0.00 0.00 0.00 58 1013.2
20260509185433 26 316 1.6 6.4 0.00 0.00 0.00 59 1013.2
20260509185330 26 49 1.6 4.8 0.00 0.00 0.00 59 1013.2
20260509185233 26 37 1.6 6.4 0.00 0.00 0.00 59 1013.2
20260509185228 26 141 1.6 4.8 0.00 0.00 0.00 60 1013.3
20260509185129 26 41 1.6 6.4 0.00 0.00 0.00 60 1013.3
20260509185114 26 37 1.6 6.4 0.00 0.00 0.00 59 1013.2
20260509184926 26 37 1.6 6.4 0.00 0.00 0.00 59 1013.3
20260509184825 26 328 1.6 6.4 0.00 0.00 0.00 60 1013.3
20260509184723 26 243 1.6 6.4 0.00 0.00 0.00 60 1013.3
20260509184623 26 161 1.6 6.4 0.00 0.00 0.00 60 1013.3
20260509184522 26 207 1.6 11.3 0.00 0.00 0.00 60 1013.3
20260509184459 26 211 1.6 11.3 0.00 0.00 0.00 60 1013.3
20260509184421 26 307 1.6 11.3 0.00 0.00 0.00 60 1013.4
20260509184318 26 307 1.6 11.3 0.00 0.00 0.00 60 1013.3
20260509184216 26 316 1.6 11.3 0.00 0.00 0.00 60 1013.3
20260509184117 26 198 1.6 11.3 0.00 0.00 0.00 59 1013.3
20260509184015 26 198 1.6 11.3 0.00 0.00 0.00 60 1013.4
20260509183954 26 219 1.6 11.3 0.00 0.00 0.00 61 1013.4
20260509183915 26 238 1.6 11.3 0.00 0.00 0.00 61 1013.4
20260509183813 26 238 1.6 11.3 0.00 0.00 0.00 60 1013.4
20260509183712 26 238 1.6 11.3 0.00 0.00 0.00 60 1013.4
20260509183611 26 219 1.6 4.8 0.00 0.00 0.00 61 1013.4
20260509183511 26 235 1.6 6.4 0.00 0.00 0.00 60 1013.4
20260509183446 26 235 1.6 8.0 0.00 0.00 0.00 61 1013.4
20260509183409 26 235 1.6 9.7 0.00 0.00 0.00 61 1013.4
20260509183306 26 204 1.6 9.7 0.00 0.00 0.00 60 1013.4
20260509183203 26 195 1.6 9.7 0.00 0.00 0.00 61 1013.4
20260509183102 26 188 1.6 9.7 0.00 0.00 0.00 62 1013.4
20260509182943 25 228 1.6 9.7 0.00 0.00 0.00 62 1013.5
20260509182902 25 228 1.6 9.7 0.00 0.00 0.00 62 1013.5
20260509182800 25 228 1.6 9.7 0.00 0.00 0.00 62 1013.5
20260509182657 25 228 1.6 9.7 0.00 0.00 0.00 63 1013.4
20260509182554 25 228 1.6 9.7 0.00 0.00 0.00 62 1013.5
20260509182454 25 238 1.6 9.7 0.00 0.00 0.00 62 1013.5
20260509182435 25 236 1.6 6.4 0.00 0.00 0.00 62 1013.4
20260509182410 25 232 1.6 6.4 0.00 0.00 0.00 62 1013.5
20260509182355 25 235 1.6 6.4 0.00 0.00 0.00 62 1013.4
20260509182307 25 219 0.0 6.4 0.00 0.00 0.00 62 1013.5
20260509182258 25 232 1.6 6.4 0.00 0.00 0.00 62 1013.4
20260509182052 25 232 1.6 6.4 0.00 0.00 0.00 62 1013.4
20260509182039 25 232 1.6 6.4 0.00 0.00 0.00 63 1013.4
20260509181851 25 232 1.6 8.0 0.00 0.00 0.00 62 1013.5
20260509181748 25 298 1.6 9.7 0.00 0.00 0.00 62 1013.5
20260509181643 25 297 1.6 9.7 0.00 0.00 0.00 63 1013.5
20260509181542 25 296 3.2 9.7 0.00 0.00 0.00 63 1013.5
20260509181442 25 289 3.2 9.7 0.00 0.00 0.00 63 1013.6
20260509181424 25 289 3.2 9.7 0.00 0.00 0.00 64 1013.6
20260509181343 25 290 3.2 9.7 0.00 0.00 0.00 64 1013.6
20260509181242 25 288 3.2 11.3 0.00 0.00 0.00 63 1013.6
20260509181140 24 222 3.2 11.3 0.00 0.00 0.00 64 1013.6
20260509181040 24 238 3.2 11.3 0.00 0.00 0.00 65 1013.6
20260509180938 24 233 3.2 11.3 0.00 0.00 0.00 64 1013.6
20260509180915 24 239 3.2 11.3 0.00 0.00 0.00 64 1013.6
20260509180839 24 223 3.2 11.3 0.00 0.00 0.00 64 1013.6
20260509180737 24 233 3.2 11.3 0.00 0.00 0.00 64 1013.6
20260509180638 24 222 3.2 11.3 0.00 0.00 0.00 63 1013.7
20260509180631 24 118 3.2 11.3 0.00 0.00 0.00 64 1013.7
20260509180530 24 222 3.2 11.3 0.00 0.00 0.00 64 1013.7
20260509180521 24 222 3.2 11.3 0.00 0.00 0.00 64 1013.7
20260509180331 24 229 3.2 11.3 0.00 0.00 0.00 63 1013.7
20260509180230 24 245 3.2 9.7 0.00 0.00 0.00 65 1013.6
20260509180126 23 221 3.2 9.7 0.00 0.00 0.00 64 1013.7
20260509180025 24 175 1.6 9.7 0.00 0.00 0.00 64 1013.7
20260509175927 24 257 1.6 9.7 0.00 0.00 0.00 63 1013.7
20260509175917 24 238 1.6 9.7 0.00 0.00 0.00 63 1013.7
20260509175825 24 250 1.6 8.0 0.00 0.00 0.00 63 1013.7
20260509175724 24 233 1.6 8.0 0.00 0.00 0.00 64 1013.7
20260509175624 24 321 1.6 8.0 0.00 0.00 0.00 63 1013.7
20260509175522 24 318 1.6 9.7 0.00 0.00 0.00 65 1013.7
20260509175423 23 243 1.6 9.7 0.00 0.00 0.00 64 1013.7
20260509175358 23 243 1.6 9.7 0.00 0.00 0.00 64 1013.7
20260509175320 23 239 1.6 9.7 0.00 0.00 0.00 64 1013.7
20260509175218 23 239 1.6 9.7 0.00 0.00 0.00 65 1013.7
20260509175117 23 235 1.6 9.7 0.00 0.00 0.00 64 1013.7
20260509175016 23 235 1.6 9.7 0.00 0.00 0.00 64 1013.7
20260509174916 23 235 1.6 9.7 0.00 0.00 0.00 63 1013.8
20260509174854 23 233 1.6 9.7 0.00 0.00 0.00 63 1013.8
20260509174815 23 214 1.6 9.7 0.00 0.00 0.00 64 1013.7
20260509174712 23 262 1.6 9.7 0.00 0.00 0.00 63 1013.8
20260509174608 23 277 1.6 9.7 0.00 0.00 0.00 65 1013.8
20260509174508 23 146 1.6 9.7 0.00 0.00 0.00 65 1013.8
20260509174409 23 295 1.6 9.7 0.00 0.00 0.00 65 1013.8
20260509174346 23 295 1.6 9.7 0.00 0.00 0.00 65 1013.8
20260509174309 23 295 1.6 9.7 0.00 0.00 0.00 65 1013.8
20260509174206 23 295 1.6 9.7 0.00 0.00 0.00 64 1013.8
20260509174106 23 207 1.6 9.7 0.00 0.00 0.00 64 1013.8
20260509174004 23 207 1.6 9.7 0.00 0.00 0.00 66 1013.8
20260509173842 23 207 1.6 9.7 0.00 0.00 0.00 66 1013.8
20260509173802 23 207 1.6 9.7 0.00 0.00 0.00 66 1013.8
20260509173700 23 207 1.6 9.7 0.00 0.00 0.00 65 1013.8
20260509173600 23 225 1.6 9.7 0.00 0.00 0.00 64 1013.8
20260509173459 23 219 1.6 6.4 0.00 0.00 0.00 65 1013.8
20260509173359 23 221 1.6 6.4 0.00 0.00 0.00 66 1013.8
20260509173337 23 221 1.6 6.4 0.00 0.00 0.00 66 1013.7
20260509173256 23 221 1.6 6.4 0.00 0.00 0.00 66 1013.7
20260509173154 23 221 1.6 6.4 0.00 0.00 0.00 66 1013.8
20260509173050 22 221 1.6 6.4 0.00 0.00 0.00 66 1013.8
20260509172948 22 226 1.6 6.4 0.00 0.00 0.00 66 1013.7
20260509172828 22 226 1.6 6.4 0.00 0.00 0.00 66 1013.8
20260509172748 22 214 1.6 6.4 0.00 0.00 0.00 67 1013.8
20260509172648 22 217 1.6 6.4 0.00 0.00 0.00 67 1013.7
20260509172542 22 131 1.6 4.8 0.00 0.00 0.00 67 1013.8
20260509172443 22 143 1.6 4.8 0.00 0.00 0.00 67 1013.8
20260509172342 22 223 1.6 8.0 0.00 0.00 0.00 67 1013.8
20260509172322 22 222 1.6 9.7 0.00 0.00 0.00 67 1013.8
20260509172243 22 137 1.6 9.7 0.00 0.00 0.00 68 1013.7
20260509172142 22 136 3.2 9.7 0.00 0.00 0.00 68 1013.8
20260509172037 21 214 3.2 9.7 0.00 0.00 0.00 69 1013.8
20260509171936 21 217 3.2 9.7 0.00 0.00 0.00 69 1013.8
20260509171840 21 217 3.2 9.7 0.00 0.00 0.00 68 1013.8
20260509171823 21 188 3.2 9.7 0.00 0.00 0.00 68 1013.8
20260509171737 21 189 3.2 9.7 0.00 0.00 0.00 68 1013.8
20260509171637 21 221 3.2 9.7 0.00 0.00 0.00 67 1013.8
20260509171531 21 208 3.2 9.7 0.00 0.00 0.00 67 1013.8
20260509171431 21 217 1.6 9.7 0.00 0.00 0.00 66 1013.8
20260509171333 21 231 1.6 9.7 0.00 0.00 0.00 68 1013.8
20260509171323 21 236 1.6 8.0 0.00 0.00 0.00 68 1013.8
20260509171230 21 226 1.6 6.4 0.00 0.00 0.00 68 1013.8
20260509171131 21 94 1.6 6.4 0.00 0.00 0.00 68 1013.8
20260509171026 21 232 1.6 6.4 0.00 0.00 0.00 68 1013.8
20260509170927 21 161 1.6 6.4 0.00 0.00 0.00 69 1013.8
20260509170822 21 228 1.6 6.4 0.00 0.00 0.00 69 1013.8
20260509170726 21 223 3.2 9.7 0.00 0.00 0.00 69 1013.8
20260509170625 21 222 3.2 9.7 0.00 0.00 0.00 68 1013.8
20260509170523 21 226 3.2 9.7 0.00 0.00 0.00 70 1013.8
20260509170422 21 149 3.2 9.7 0.00 0.00 0.00 70 1013.8
20260509170324 21 210 3.2 9.7 0.00 0.00 0.00 70 1013.8
20260509170221 21 210 3.2 9.7 0.00 0.00 0.00 70 1013.9
20260509170118 20 246 3.2 9.7 0.00 0.00 0.00 70 1013.9
20260509170037 20 236 3.2 9.7 0.00 0.00 0.00 69 1013.9
20260509170013 20 148 3.2 9.7 0.00 0.00 0.00 70 1013.9
20260509165934 20 217 3.2 9.7 0.00 0.00 0.00 70 1013.9
20260509165813 20 236 3.2 9.7 0.00 0.00 0.00 69 1013.9
20260509165712 21 239 3.2 9.7 0.00 0.00 0.00 69 1013.9
20260509165613 20 233 3.2 6.4 0.00 0.00 0.00 69 1013.9
20260509165508 20 110 3.2 6.4 0.00 0.00 0.00 69 1013.8
20260509165407 20 132 1.6 6.4 0.00 0.00 0.00 70 1013.9
20260509165319 20 221 1.6 6.4 0.00 0.00 0.00 70 1013.9
20260509165307 20 221 1.6 6.4 0.00 0.00 0.00 69 1013.9
20260509165207 20 183 1.6 6.4 0.00 0.00 0.00 70 1013.9
20260509165106 20 210 1.6 6.4 0.00 0.00 0.00 69 1013.9
20260509165002 20 245 1.6 6.4 0.00 0.00 0.00 70 1013.9
20260509164902 20 217 1.6 4.8 0.00 0.00 0.00 70 1014.0
20260509164818 20 134 1.6 4.8 0.00 0.00 0.00 70 1014.0
20260509164803 20 156 1.6 4.8 0.00 0.00 0.00 70 1014.0
20260509164702 20 210 1.6 6.4 0.00 0.00 0.00 70 1014.0
20260509164600 20 238 1.6 11.3 0.00 0.00 0.00 71 1014.0
20260509164501 20 238 1.6 12.9 0.00 0.00 0.00 71 1014.0
20260509164358 20 238 1.6 12.9 0.00 0.00 0.00 71 1013.9
20260509164318 20 236 1.6 12.9 0.00 0.00 0.00 72 1014.0
20260509164258 20 236 1.6 12.9 0.00 0.00 0.00 72 1014.0
20260509164157 20 237 1.6 12.9 0.00 0.00 0.00 72 1013.9
20260509164055 20 236 1.6 12.9 0.00 0.00 0.00 72 1013.9
20260509163950 20 236 3.2 12.9 0.00 0.00 0.00 71 1013.9
20260509163849 20 233 3.2 12.9 0.00 0.00 0.00 71 1013.9
20260509163817 20 236 1.6 12.9 0.00 0.00 0.00 71 1014.0
20260509163748 20 214 1.6 12.9 0.00 0.00 0.00 71 1014.0
20260509163648 20 240 1.6 12.9 0.00 0.00 0.00 71 1014.0
20260509163548 20 243 0.0 4.8 0.00 0.00 0.00 72 1013.9
20260509163443 20 256 0.0 4.8 0.00 0.00 0.00 72 1014.0
20260509163318 20 207 1.6 11.3 0.00 0.00 0.00 72 1014.0
20260509163243 20 207 1.6 11.3 0.00 0.00 0.00 73 1014.0
20260509163142 19 226 3.2 11.3 0.00 0.00 0.00 73 1014.0
20260509163042 19 171 3.2 11.3 0.00 0.00 0.00 73 1014.0
20260509162941 19 232 3.2 11.3 0.00 0.00 0.00 73 1014.0
20260509162840 19 232 3.2 11.3 0.00 0.00 0.00 73 1014.0
20260509162817 19 232 3.2 11.3 0.00 0.00 0.00 74 1014.0
20260509162741 19 232 3.2 11.3 0.00 0.00 0.00 74 1014.0
20260509162639 18 232 3.2 11.3 0.00 0.00 0.00 74 1014.0
20260509162537 18 208 3.2 11.3 0.00 0.00 0.00 74 1014.0
20260509162435 18 208 3.2 11.3 0.00 0.00 0.00 73 1014.0
20260509162335 18 226 3.2 8.0 0.00 0.00 0.00 74 1014.0
20260509162314 18 238 3.2 8.0 0.00 0.00 0.00 74 1014.0
20260509162234 18 242 1.6 8.0 0.00 0.00 0.00 74 1014.0
20260509162132 18 212 1.6 8.0 0.00 0.00 0.00 74 1014.0
20260509162030 18 224 1.6 8.0 0.00 0.00 0.00 73 1014.1
20260509161929 18 229 1.6 8.0 0.00 0.00 0.00 73 1014.1
20260509161828 18 259 1.6 8.0 0.00 0.00 0.00 74 1014.0
20260509161814 18 249 1.6 8.0 0.00 0.00 0.00 75 1014.0
20260509161728 18 170 1.6 8.0 0.00 0.00 0.00 75 1014.0
20260509161626 18 207 1.6 8.0 0.00 0.00 0.00 75 1014.0
20260509161535 18 228 1.6 8.0 0.00 0.00 0.00 75 1014.1
20260509161524 18 315 1.6 8.0 0.00 0.00 0.00 75 1014.1
20260509161433 18 150 1.6 8.0 0.00 0.00 0.00 75 1014.1
20260509161425 18 228 1.6 8.0 0.00 0.00 0.00 75 1014.1
20260509161222 18 221 3.2 8.0 0.00 0.00 0.00 75 1014.1
20260509161121 18 139 3.2 8.0 0.00 0.00 0.00 76 1014.0
20260509161018 18 150 3.2 9.7 0.00 0.00 0.00 76 1014.0
20260509160916 18 211 3.2 9.7 0.00 0.00 0.00 76 1014.0
20260509160818 18 224 3.2 9.7 0.00 0.00 0.00 77 1014.0
20260509160717 17 236 3.2 9.7 0.00 0.00 0.00 77 1014.0
20260509160615 17 228 3.2 9.7 0.00 0.00 0.00 77 1014.1
20260509160512 17 229 3.2 9.7 0.00 0.00 0.00 77 1014.0
20260509160407 17 238 1.6 9.7 0.00 0.00 0.00 76 1014.0
20260509160314 17 235 1.6 9.7 0.00 0.00 0.00 77 1014.1
20260509160307 17 161 1.6 9.7 0.00 0.00 0.00 77 1014.1
20260509160206 17 204 1.6 9.7 0.00 0.00 0.00 76 1014.1
20260509160107 17 245 1.6 9.7 0.00 0.00 0.00 76 1014.1
20260509160006 17 243 1.6 9.7 0.00 0.00 0.00 78 1014.1
20260509155902 17 222 1.6 9.7 0.00 0.00 0.00 78 1014.1
20260509155815 17 223 3.2 11.3 0.00 0.00 0.00 79 1014.0
20260509155801 17 236 3.2 11.3 0.00 0.00 0.00 79 1014.0
20260509155701 17 236 3.2 11.3 0.00 0.00 0.00 79 1014.0
20260509155601 17 236 4.8 11.3 0.00 0.00 0.00 80 1014.0
20260509155458 17 185 4.8 11.3 0.00 0.00 0.00 80 1014.0
20260509155354 16 184 4.8 11.3 0.00 0.00 0.00 80 1014.0
20260509155314 16 219 4.8 11.3 0.00 0.00 0.00 80 1014.0
20260509155255 16 172 4.8 11.3 0.00 0.00 0.00 80 1014.0
20260509155155 16 232 4.8 11.3 0.00 0.00 0.00 80 1014.0
20260509155054 16 222 4.8 11.3 0.00 0.00 0.00 79 1014.1
20260509154952 16 239 4.8 11.3 0.00 0.00 0.00 79 1014.0
20260509154846 16 195 4.8 11.3 0.00 0.00 0.00 79 1014.0
20260509154809 16 250 4.8 11.3 0.00 0.00 0.00 79 1014.0
20260509154746 16 235 4.8 9.7 0.00 0.00 0.00 79 1014.0
20260509154646 16 238 4.8 9.7 0.00 0.00 0.00 79 1014.0
20260509154547 16 146 3.2 9.7 0.00 0.00 0.00 80 1014.0
20260509154446 16 231 3.2 9.7 0.00 0.00 0.00 79 1013.9
20260509154341 16 235 3.2 9.7 0.00 0.00 0.00 80 1013.9
20260509154304 16 162 3.2 9.7 0.00 0.00 0.00 79 1013.9
20260509154241 16 207 3.2 9.7 0.00 0.00 0.00 79 1013.9
20260509154140 16 245 3.2 9.7 0.00 0.00 0.00 79 1013.9
20260509154040 16 229 3.2 9.7 0.00 0.00 0.00 79 1014.0
20260509153941 16 230 4.8 9.7 0.00 0.00 0.00 79 1014.0
20260509153839 16 225 4.8 9.7 0.00 0.00 0.00 79 1014.0
20260509153756 16 238 4.8 9.7 0.00 0.00 0.00 79 1014.0
20260509153738 16 223 4.8 8.0 0.00 0.00 0.00 79 1014.1
20260509153639 16 236 4.8 8.0 0.00 0.00 0.00 80 1014.1
20260509153537 16 148 4.8 8.0 0.00 0.00 0.00 80 1014.0
20260509153434 16 150 4.8 8.0 0.00 0.00 0.00 80 1014.1
20260509153332 16 212 4.8 8.0 0.00 0.00 0.00 80 1014.0
20260509153250 16 159 4.8 8.0 0.00 0.00 0.00 80 1014.0
20260509153233 16 177 4.8 8.0 0.00 0.00 0.00 80 1014.1
20260509153133 16 193 4.8 8.0 0.00 0.00 0.00 81 1014.1
20260509153031 16 233 4.8 8.0 0.00 0.00 0.00 80 1014.0
20260509152928 16 233 4.8 8.0 0.00 0.00 0.00 80 1014.0
20260509152824 16 205 4.8 8.0 0.00 0.00 0.00 79 1014.0
20260509152744 16 230 3.2 8.0 0.00 0.00 0.00 79 1014.0
20260509152725 16 236 3.2 8.0 0.00 0.00 0.00 79 1014.0
20260509152625 16 210 3.2 8.0 0.00 0.00 0.00 79 1014.0
20260509152525 16 194 3.2 8.0 0.00 0.00 0.00 79 1014.0
20260509152502 16 203 3.2 6.4 0.00 0.00 0.00 79 1014.0
20260509152422 16 211 3.2 8.0 0.00 0.00 0.00 79 1014.0
20260509152350 16 233 3.2 6.4 0.00 0.00 0.00 79 1014.0
20260509152218 16 191 3.2 6.4 0.00 0.00 0.00 79 1014.0
20260509152119 16 241 1.6 6.4 0.00 0.00 0.00 79 1014.0
20260509152019 16 219 1.6 6.4 0.00 0.00 0.00 80 1014.0
20260509151916 16 219 1.6 6.4 0.00 0.00 0.00 79 1014.0
20260509151814 16 226 1.6 6.4 0.00 0.00 0.00 80 1014.0
20260509151734 16 193 1.6 4.8 0.00 0.00 0.00 80 1014.0
20260509151714 16 234 1.6 4.8 0.00 0.00 0.00 80 1014.0
20260509151613 16 232 1.6 4.8 0.00 0.00 0.00 80 1014.0
20260509151512 16 224 1.6 4.8 0.00 0.00 0.00 80 1014.0
20260509151410 16 223 1.6 4.8 0.00 0.00 0.00 80 1014.0
20260509151307 16 134 1.6 4.8 0.00 0.00 0.00 81 1014.0
20260509151226 16 134 1.6 4.8 0.00 0.00 0.00 81 1014.0
20260509151204 16 158 1.6 4.8 0.00 0.00 0.00 81 1014.0
20260509151104 16 203 1.6 4.8 0.00 0.00 0.00 81 1014.0
20260509151005 15 139 1.6 4.8 0.00 0.00 0.00 81 1014.0
20260509150904 15 200 3.2 8.0 0.00 0.00 0.00 82 1014.0
20260509150804 15 169 3.2 8.0 0.00 0.00 0.00 82 1014.0
20260509150721 15 135 3.2 8.0 0.00 0.00 0.00 82 1013.9
20260509150702 15 136 3.2 8.0 0.00 0.00 0.00 82 1013.9
20260509150600 15 136 3.2 8.0 0.00 0.00 0.00 82 1013.9
20260509150501 15 219 3.2 8.0 0.00 0.00 0.00 82 1013.9
20260509150358 15 219 3.2 8.0 0.00 0.00 0.00 82 1013.9
20260509150257 15 176 3.2 8.0 0.00 0.00 0.00 82 1013.9
20260509150213 15 231 3.2 8.0 0.00 0.00 0.00 82 1013.9
20260509150157 15 231 3.2 8.0 0.00 0.00 0.00 82 1013.9
20260509150056 15 238 3.2 8.0 0.00 0.00 0.00 82 1013.9
20260509145954 15 151 3.2 8.0 0.00 0.00 0.00 82 1014.0
20260509145932 15 238 3.2 8.0 0.00 0.00 0.00 82 1014.1
20260509145852 15 250 3.2 6.4 0.00 0.00 0.00 82 1014.0
20260509145819 15 233 3.2 6.4 0.00 0.00 0.00 82 1014.0
20260509145647 15 232 3.2 8.0 0.00 0.00 0.00 82 1014.1
20260509145546 15 221 3.2 8.0 0.00 0.00 0.00 83 1014.0
20260509145446 15 221 3.2 8.0 0.00 0.00 0.00 82 1014.0
20260509145346 15 221 3.2 8.0 0.00 0.00 0.00 83 1014.0
20260509145242 15 187 3.2 8.0 0.00 0.00 0.00 83 1014.0
20260509145202 15 226 3.2 8.0 0.00 0.00 0.00 83 1014.0
20260509145140 15 146 3.2 8.0 0.00 0.00 0.00 83 1014.0
20260509145041 15 231 3.2 8.0 0.00 0.00 0.00 82 1014.0
20260509144941 15 240 3.2 8.0 0.00 0.00 0.00 83 1014.1
20260509144840 15 244 3.2 8.0 0.00 0.00 0.00 83 1014.0
20260509144736 15 200 3.2 8.0 0.00 0.00 0.00 82 1014.0
20260509144656 15 200 3.2 8.0 0.00 0.00 0.00 82 1014.0
20260509144635 15 200 3.2 8.0 0.00 0.00 0.00 83 1014.0
20260509144535 15 215 3.2 8.0 0.00 0.00 0.00 83 1014.1
20260509144435 15 232 3.2 8.0 0.00 0.00 0.00 83 1014.1
20260509144334 15 204 3.2 8.0 0.00 0.00 0.00 83 1014.1
20260509144228 15 198 3.2 8.0 0.00 0.00 0.00 83 1014.1
20260509144150 15 190 3.2 8.0 0.00 0.00 0.00 83 1014.1
20260509144129 15 193 3.2 8.0 0.00 0.00 0.00 83 1014.1
20260509144028 15 154 3.2 8.0 0.00 0.00 0.00 83 1014.1
20260509143928 15 150 1.6 8.0 0.00 0.00 0.00 83 1014.1
20260509143832 15 200 1.6 8.0 0.00 0.00 0.00 83 1014.1
20260509143728 14 228 1.6 8.0 0.00 0.00 0.00 84 1014.1
20260509143643 14 172 1.6 8.0 0.00 0.00 0.00 84 1014.1
20260509143627 14 165 1.6 8.0 0.00 0.00 0.00 84 1014.1
20260509143424 14 221 3.2 6.4 0.00 0.00 0.00 84 1014.0
20260509143321 14 221 3.2 8.0 0.00 0.00 0.00 84 1014.0
20260509143217 14 203 3.2 9.7 0.00 0.00 0.00 84 1014.0
20260509143137 14 233 3.2 9.7 0.00 0.00 0.00 84 1014.0
20260509143117 14 225 3.2 9.7 0.00 0.00 0.00 85 1014.0
20260509143016 14 154 3.2 9.7 0.00 0.00 0.00 85 1014.0
20260509142916 14 214 3.2 9.7 0.00 0.00 0.00 85 1014.0
20260509142816 14 139 3.2 9.7 0.00 0.00 0.00 85 1014.0
20260509142712 13 158 4.8 9.7 0.00 0.00 0.00 85 1013.9
20260509142633 13 167 4.8 9.7 0.00 0.00 0.00 85 1013.9
20260509142610 13 207 4.8 9.7 0.00 0.00 0.00 85 1013.9
20260509142511 13 211 4.8 9.7 0.00 0.00 0.00 85 1014.0
20260509142411 14 248 3.2 9.7 0.00 0.00 0.00 84 1014.0
20260509142310 14 192 3.2 9.7 0.00 0.00 0.00 84 1013.9
20260509142204 14 222 3.2 8.0 0.00 0.00 0.00 84 1013.9
20260509142127 14 229 3.2 8.0 0.00 0.00 0.00 84 1013.9
20260509142104 14 270 3.2 8.0 0.00 0.00 0.00 85 1013.9
20260509142004 13 146 3.2 6.4 0.00 0.00 0.00 85 1013.9
20260509141905 13 203 3.2 6.4 0.00 0.00 0.00 85 1013.9
20260509141804 13 139 3.2 6.4 0.00 0.00 0.00 85 1013.9
20260509141659 13 201 3.2 6.4 0.00 0.00 0.00 85 1014.0
20260509141621 13 184 3.2 6.4 0.00 0.00 0.00 85 1014.0
20260509141558 13 158 3.2 6.4 0.00 0.00 0.00 85 1014.0
20260509141459 13 222 3.2 6.4 0.00 0.00 0.00 85 1014.0
20260509141359 13 204 3.2 6.4 0.00 0.00 0.00 85 1014.0
20260509141258 13 211 3.2 6.4 0.00 0.00 0.00 85 1013.9
20260509141154 13 210 3.2 6.4 0.00 0.00 0.00 85 1013.9
20260509141114 13 200 3.2 6.4 0.00 0.00 0.00 85 1014.0
20260509141052 13 207 3.2 6.4 0.00 0.00 0.00 85 1014.0
20260509140952 13 200 1.6 6.4 0.00 0.00 0.00 85 1013.9
20260509140853 13 221 1.6 6.4 0.00 0.00 0.00 85 1013.9
20260509140752 13 219 1.6 6.4 0.00 0.00 0.00 85 1013.9
20260509140646 13 211 1.6 6.4 0.00 0.00 0.00 84 1013.9
20260509140608 13 224 1.6 4.8 0.00 0.00 0.00 85 1013.9
20260509140547 13 207 1.6 4.8 0.00 0.00 0.00 85 1013.9
20260509140447 13 186 1.6 4.8 0.00 0.00 0.00 85 1013.9
20260509140346 13 150 1.6 4.8 0.00 0.00 0.00 85 1013.9
20260509140246 13 208 1.6 4.8 0.00 0.00 0.00 85 1013.9
20260509140144 13 134 1.6 4.8 0.00 0.00 0.00 85 1013.9
20260509140107 13 131 1.6 4.8 0.00 0.00 0.00 85 1014.0
20260509140045 13 131 1.6 4.8 0.00 0.00 0.00 85 1013.9
20260509135943 13 231 1.6 4.8 0.00 0.00 0.00 85 1013.9
20260509135842 13 137 1.6 4.8 0.00 0.00 0.00 85 1013.9
20260509135819 13 136 1.6 4.8 0.00 0.00 0.00 86 1013.9
20260509135740 13 118 1.6 4.8 0.00 0.00 0.00 85 1013.9
20260509135706 13 135 1.6 4.8 0.00 0.00 0.00 85 1013.9
20260509135539 13 132 1.6 4.8 0.00 0.00 0.00 86 1013.9
20260509135438 13 139 1.6 3.2 0.00 0.00 0.00 86 1013.9
20260509135336 13 200 1.6 3.2 0.00 0.00 0.00 86 1013.9
20260509135234 13 211 1.6 3.2 0.00 0.00 0.00 87 1013.9
20260509135135 13 212 1.6 3.2 0.00 0.00 0.00 86 1013.8
20260509135051 13 212 1.6 3.2 0.00 0.00 0.00 86 1013.8
20260509135032 13 212 1.6 3.2 0.00 0.00 0.00 86 1013.9
20260509134930 13 212 1.6 3.2 0.00 0.00 0.00 86 1013.8
20260509134831 13 212 1.6 3.2 0.00 0.00 0.00 86 1013.8
20260509134728 13 232 1.6 3.2 0.00 0.00 0.00 86 1013.8
20260509134623 13 210 1.6 3.2 0.00 0.00 0.00 86 1013.8
20260509134544 13 163 1.6 3.2 0.00 0.00 0.00 86 1013.7
20260509134523 13 164 1.6 3.2 0.00 0.00 0.00 86 1013.7
20260509134422 13 170 1.6 3.2 0.00 0.00 0.00 86 1013.7
20260509134322 13 210 1.6 3.2 0.00 0.00 0.00 86 1013.8
20260509134222 13 229 0.0 3.2 0.00 0.00 0.00 86 1013.7
20260509134122 13 228 0.0 3.2 0.00 0.00 0.00 87 1013.8
20260509134021 13 165 1.6 3.2 0.00 0.00 0.00 87 1013.8
20260509133920 13 165 1.6 6.4 0.00 0.00 0.00 87 1013.8
20260509133818 13 150 1.6 6.4 0.00 0.00 0.00 87 1013.7
20260509133716 13 210 0.0 6.4 0.00 0.00 0.00 87 1013.7
20260509133531 13 235 0.0 6.4 0.00 0.00 0.00 87 1013.7
20260509133515 13 234 0.0 6.4 0.00 0.00 0.00 87 1013.7
20260509133415 13 235 1.6 6.4 0.00 0.00 0.00 87 1013.7
20260509133313 13 235 1.6 6.4 0.00 0.00 0.00 87 1013.7
20260509133257 12 234 1.6 6.4 0.00 0.00 0.00 87 1013.7
20260509133209 13 235 1.6 6.4 0.00 0.00 0.00 87 1013.7
20260509133151 13 235 1.6 6.4 0.00 0.00 0.00 87 1013.7
20260509133005 12 239 1.6 6.4 0.00 0.00 0.00 87 1013.7
20260509132905 12 239 1.6 6.4 0.00 0.00 0.00 87 1013.6
20260509132804 12 235 1.6 6.4 0.00 0.00 0.00 87 1013.6
20260509132740 12 235 1.6 6.4 0.00 0.00 0.00 87 1013.6
20260509132704 12 235 1.6 6.4 0.00 0.00 0.00 87 1013.6
20260509132631 12 235 1.6 6.4 0.00 0.00 0.00 87 1013.6
20260509132502 12 235 1.6 6.4 0.00 0.00 0.00 87 1013.6
20260509132401 12 230 1.6 6.4 0.00 0.00 0.00 87 1013.6
20260509132300 12 241 1.6 6.4 0.00 0.00 0.00 87 1013.6
20260509132248 12 229 3.2 8.0 0.00 0.00 0.00 87 1013.6
20260509132159 12 242 1.6 6.4 0.00 0.00 0.00 87 1013.6
20260509132137 12 240 1.6 8.0 0.00 0.00 0.00 87 1013.6
20260509131957 12 229 3.2 8.0 0.00 0.00 0.00 87 1013.6
20260509131854 12 140 3.2 8.0 0.00 0.00 0.00 87 1013.5
20260509131754 12 229 3.2 8.0 0.00 0.00 0.00 87 1013.6
20260509131736 12 210 3.2 9.7 0.00 0.00 0.00 87 1013.5
20260509131654 12 221 3.2 8.0 0.00 0.00 0.00 87 1013.5
20260509131622 12 223 3.2 9.7 0.00 0.00 0.00 87 1013.5
20260509131447 12 186 3.2 9.7 0.00 0.00 0.00 87 1013.5
20260509131347 12 237 3.2 9.7 0.00 0.00 0.00 87 1013.5
20260509131244 12 248 3.2 9.7 0.00 0.00 0.00 87 1013.5
20260509131142 12 256 3.2 9.7 0.00 0.00 0.00 87 1013.5
20260509131036 12 241 3.2 9.7 0.00 0.00 0.00 87 1013.5
20260509130958 12 233 3.2 9.7 0.00 0.00 0.00 87 1013.5
20260509130942 13 238 3.2 11.3 0.00 0.00 0.00 86 1013.5
20260509130937 13 219 3.2 9.7 0.00 0.00 0.00 87 1013.5
20260509130836 12 236 3.2 9.7 0.00 0.00 0.00 87 1013.5
20260509130823 12 228 3.2 9.7 0.00 0.00 0.00 87 1013.5
20260509130637 12 210 3.2 9.7 0.00 0.00 0.00 87 1013.5
20260509130601 13 243 3.2 11.3 0.00 0.00 0.00 86 1013.5
20260509130430 13 239 3.2 11.3 0.00 0.00 0.00 86 1013.5
20260509130331 13 225 3.2 11.3 0.00 0.00 0.00 86 1013.5
20260509130234 13 219 3.2 11.3 0.00 0.00 0.00 86 1013.5
20260509130130 13 218 4.8 11.3 0.00 0.00 0.00 86 1013.5
20260509130031 13 229 4.8 11.3 0.00 0.00 0.00 86 1013.5
20260509125928 13 277 4.8 11.3 0.00 0.00 0.00 86 1013.5
20260509125828 13 233 4.8 11.3 0.00 0.00 0.00 86 1013.4
20260509125726 13 238 4.8 11.3 0.00 0.00 0.00 86 1013.4
20260509125624 13 245 4.8 11.3 0.00 0.00 0.00 86 1013.4
20260509125521 13 226 4.8 11.3 0.00 0.00 0.00 86 1013.4
20260509125441 13 243 4.8 9.7 0.00 0.00 0.00 86 1013.4
20260509125420 13 229 4.8 9.7 0.00 0.00 0.00 86 1013.4
20260509125320 13 229 4.8 9.7 0.00 0.00 0.00 86 1013.3
20260509125220 13 230 4.8 9.7 0.00 0.00 0.00 86 1013.4
20260509125118 13 224 4.8 9.7 0.00 0.00 0.00 86 1013.3
20260509125013 13 235 4.8 9.7 0.00 0.00 0.00 86 1013.3
20260509124933 13 230 4.8 9.7 0.00 0.00 0.00 86 1013.4
20260509124912 13 236 4.8 9.7 0.00 0.00 0.00 86 1013.4
20260509124813 13 226 4.8 9.7 0.00 0.00 0.00 86 1013.3
20260509124713 13 235 4.8 9.7 0.00 0.00 0.00 86 1013.3
20260509124612 13 226 4.8 11.3 0.00 0.00 0.00 86 1013.3
20260509124506 13 246 4.8 11.3 0.00 0.00 0.00 86 1013.3
20260509124428 13 198 4.8 11.3 0.00 0.00 0.00 86 1013.4
20260509124407 13 229 4.8 11.3 0.00 0.00 0.00 86 1013.4
20260509124306 13 225 4.8 11.3 0.00 0.00 0.00 85 1013.4
20260509124206 13 229 4.8 11.3 0.00 0.00 0.00 86 1013.3
20260509124106 13 235 4.8 11.3 0.00 0.00 0.00 85 1013.4
20260509124003 13 250 3.2 11.3 0.00 0.00 0.00 86 1013.4
20260509123922 13 231 3.2 11.3 0.00 0.00 0.00 86 1013.3
20260509123901 13 249 3.2 11.3 0.00 0.00 0.00 86 1013.3
20260509123801 13 236 3.2 11.3 0.00 0.00 0.00 86 1013.4
20260509123701 13 229 3.2 9.7 0.00 0.00 0.00 86 1013.4
20260509123600 13 233 3.2 9.7 0.00 0.00 0.00 86 1013.3
20260509123454 13 241 3.2 9.7 0.00 0.00 0.00 85 1013.4
20260509123416 13 218 3.2 8.0 0.00 0.00 0.00 85 1013.3
20260509123354 13 240 3.2 8.0 0.00 0.00 0.00 85 1013.3
20260509123255 13 240 3.2 8.0 0.00 0.00 0.00 85 1013.4
20260509123154 13 223 3.2 8.0 0.00 0.00 0.00 85 1013.3
20260509123054 13 229 3.2 8.0 0.00 0.00 0.00 85 1013.3
20260509122953 13 231 3.2 8.0 0.00 0.00 0.00 85 1013.4
20260509122909 13 238 3.2 8.0 0.00 0.00 0.00 85 1013.4
20260509122852 13 242 3.2 8.0 0.00 0.00 0.00 85 1013.4
20260509122751 13 239 3.2 8.0 0.00 0.00 0.00 86 1013.4
20260509122650 13 214 3.2 8.0 0.00 0.00 0.00 86 1013.4
20260509122622 13 224 3.2 9.7 0.00 0.00 0.00 86 1013.4
20260509122548 13 233 3.2 9.7 0.00 0.00 0.00 86 1013.4
20260509122515 13 228 3.2 9.7 0.00 0.00 0.00 86 1013.4
20260509122342 13 212 3.2 9.7 0.00 0.00 0.00 86 1013.4
20260509122242 13 231 3.2 9.7 0.00 0.00 0.00 86 1013.4
20260509122142 13 233 3.2 9.7 0.00 0.00 0.00 86 1013.4
20260509122042 13 239 3.2 9.7 0.00 0.00 0.00 86 1013.4
20260509121936 13 236 3.2 9.7 0.00 0.00 0.00 86 1013.4
20260509121857 13 218 3.2 9.7 0.00 0.00 0.00 86 1013.4
20260509121836 13 218 3.2 9.7 0.00 0.00 0.00 86 1013.3
20260509121736 13 225 3.2 9.7 0.00 0.00 0.00 86 1013.4
20260509121636 13 257 1.6 9.7 0.00 0.00 0.00 87 1013.4
20260509121536 13 238 1.6 8.0 0.00 0.00 0.00 87 1013.3
20260509121431 13 245 1.6 8.0 0.00 0.00 0.00 87 1013.4
20260509121352 13 229 1.6 8.0 0.00 0.00 0.00 87 1013.4
20260509121330 13 184 1.6 8.0 0.00 0.00 0.00 87 1013.3
20260509121232 13 232 1.6 8.0 0.00 0.00 0.00 87 1013.4
20260509121130 13 271 1.6 8.0 0.00 0.00 0.00 87 1013.4
20260509121031 13 155 1.6 4.8 0.00 0.00 0.00 87 1013.3
20260509120929 13 219 1.6 4.8 0.00 0.00 0.00 87 1013.4
20260509120847 13 218 1.6 4.8 0.00 0.00 0.00 87 1013.4
20260509120830 13 228 0.0 4.8 0.00 0.00 0.00 87 1013.4
20260509120729 13 222 0.0 4.8 0.00 0.00 0.00 87 1013.4
20260509120626 13 214 0.0 3.2 0.00 0.00 0.00 87 1013.4
20260509120525 13 200 0.0 3.2 0.00 0.00 0.00 87 1013.4
20260509120421 13 208 0.0 3.2 0.00 0.00 0.00 87 1013.4
20260509120318 13 212 0.0 3.2 0.00 0.00 0.00 87 1013.4
20260509120219 13 212 0.0 3.2 0.00 0.00 0.00 87 1013.4
20260509120119 13 212 0.0 3.2 0.00 0.00 0.00 87 1013.3
20260509120018 13 212 0.0 3.2 0.00 0.00 0.00 87 1013.4
20260509115918 13 212 0.0 3.2 0.00 0.00 0.00 87 1013.3
20260509115816 13 212 0.0 3.2 0.00 0.00 0.00 87 1013.3
20260509115717 13 212 0.0 3.2 0.00 0.00 0.00 87 1013.4
20260509115615 13 212 0.0 3.2 0.00 0.00 0.00 87 1013.4
20260509115512 13 212 0.0 3.2 0.00 0.00 0.00 87 1013.4
20260509115408 13 212 0.0 3.2 0.00 0.00 0.00 87 1013.4
20260509115328 13 212 0.0 3.2 0.00 0.00 0.00 87 1013.4
20260509115308 13 211 0.0 3.2 0.00 0.00 0.00 87 1013.4
20260509115208 13 211 0.0 3.2 0.00 0.00 0.00 87 1013.4
20260509115109 13 233 1.6 3.2 0.00 0.00 0.00 87 1013.4
20260509115006 13 233 1.6 3.2 0.00 0.00 0.00 87 1013.4
20260509114902 13 233 1.6 3.2 0.00 0.00 0.00 87 1013.4
20260509114827 13 233 1.6 3.2 0.00 0.00 0.00 87 1013.3
20260509114800 13 233 1.6 3.2 0.00 0.00 0.00 87 1013.3
20260509114701 13 233 1.6 3.2 0.00 0.00 0.00 87 1013.4
20260509114601 13 233 1.6 3.2 0.00 0.00 0.00 87 1013.4
20260509114545 13 238 1.6 3.2 0.00 0.00 0.00 87 1013.3
20260509114500 13 233 1.6 3.2 0.00 0.00 0.00 87 1013.4
20260509114428 13 233 1.6 3.2 0.00 0.00 0.00 87 1013.4
20260509114259 13 236 1.6 3.2 0.00 0.00 0.00 87 1013.3
20260509114158 13 235 0.0 3.2 0.00 0.00 0.00 87 1013.4
20260509114056 13 235 0.0 3.2 0.00 0.00 0.00 87 1013.3
20260509113954 13 235 0.0 3.2 0.00 0.00 0.00 87 1013.4
20260509113853 13 236 0.0 3.2 0.00 0.00 0.00 87 1013.4
20260509113809 13 236 0.0 3.2 0.00 0.00 0.00 87 1013.4
20260509113752 13 236 0.0 3.2 0.00 0.00 0.00 87 1013.4
20260509113652 13 236 0.0 3.2 0.00 0.00 0.00 87 1013.4
20260509113550 13 238 0.0 3.2 0.00 0.00 0.00 87 1013.4
20260509113448 13 238 0.0 3.2 0.00 0.00 0.00 87 1013.4
20260509113344 13 238 0.0 3.2 0.00 0.00 0.00 87 1013.4
20260509113304 13 238 0.0 3.2 0.00 0.00 0.00 87 1013.4
20260509113242 13 238 0.0 3.2 0.00 0.00 0.00 87 1013.4
20260509113143 13 238 0.0 3.2 0.00 0.00 0.00 88 1013.4
20260509113042 13 238 0.0 3.2 0.00 0.00 0.00 88 1013.4
20260509113022 13 226 0.0 3.2 0.00 0.00 0.00 88 1013.4
20260509112942 13 226 0.0 3.2 0.00 0.00 0.00 88 1013.4
20260509112912 13 226 0.0 3.2 0.00 0.00 0.00 88 1013.4
20260509112737 13 226 0.0 3.2 0.00 0.00 0.00 88 1013.4
20260509112636 13 226 0.0 3.2 0.00 0.00 0.00 88 1013.4
20260509112537 13 226 0.0 3.2 0.00 0.00 0.00 88 1013.4
20260509112436 13 226 0.0 3.2 0.00 0.00 0.00 88 1013.4
20260509112336 12 226 0.0 3.2 0.00 0.00 0.00 88 1013.4
20260509112253 12 226 0.0 3.2 0.00 0.00 0.00 88 1013.4
20260509112237 12 226 0.0 3.2 0.00 0.00 0.00 88 1013.5
20260509112132 12 226 0.0 3.2 0.00 0.00 0.00 88 1013.4
20260509112032 12 226 0.0 3.2 0.00 0.00 0.00 88 1013.4
20260509111931 12 232 0.0 3.2 0.00 0.00 0.00 88 1013.4
20260509111827 12 232 0.0 3.2 0.00 0.00 0.00 88 1013.4
20260509111724 12 232 0.0 3.2 0.00 0.00 0.00 88 1013.4
20260509111624 12 232 0.0 3.2 0.00 0.00 0.00 89 1013.4
20260509111525 12 232 0.0 3.2 0.00 0.00 0.00 89 1013.4
20260509111424 12 232 0.0 3.2 0.00 0.00 0.00 89 1013.4
20260509111321 12 232 0.0 3.2 0.00 0.00 0.00 89 1013.4
20260509111232 12 224 0.0 1.6 0.00 0.00 0.00 88 1013.4
20260509111218 12 232 0.0 3.2 0.00 0.00 0.00 89 1013.4
20260509111124 12 233 0.0 3.2 0.00 0.00 0.00 89 1013.4
20260509111115 12 233 0.0 1.6 0.00 0.00 0.00 88 1013.4
20260509110918 12 223 0.0 1.6 0.00 0.00 0.00 88 1013.4
20260509110848 12 224 0.0 1.6 0.00 0.00 0.00 88 1013.4
20260509110716 12 224 0.0 1.6 0.00 0.00 0.00 88 1013.4
20260509110617 12 224 0.0 1.6 0.00 0.00 0.00 88 1013.4
20260509110514 12 224 0.0 1.6 0.00 0.00 0.00 88 1013.4
20260509110412 12 224 0.0 1.6 0.00 0.00 0.00 88 1013.4
20260509110306 13 224 0.0 1.6 0.00 0.00 0.00 88 1013.4
20260509110232 13 223 0.0 1.6 0.00 0.00 0.00 88 1013.4
20260509110207 13 224 0.0 1.6 0.00 0.00 0.00 88 1013.4
20260509110106 13 224 0.0 1.6 0.00 0.00 0.00 88 1013.4
20260509110006 13 224 0.0 1.6 0.00 0.00 0.00 88 1013.3
20260509105906 13 224 0.0 1.6 0.00 0.00 0.00 88 1013.4
20260509105804 13 224 0.0 1.6 0.00 0.00 0.00 88 1013.3
20260509105722 13 224 0.0 1.6 0.00 0.00 0.00 88 1013.3
20260509105704 13 224 0.0 1.6 0.00 0.00 0.00 88 1013.3
20260509105603 13 223 0.0 1.6 0.00 0.00 0.00 88 1013.3
20260509105503 13 224 0.0 1.6 0.00 0.00 0.00 88 1013.3
20260509105400 13 224 0.0 1.6 0.00 0.00 0.00 88 1013.3
20260509105255 13 224 0.0 1.6 0.00 0.00 0.00 88 1013.3
20260509105215 13 224 0.0 1.6 0.00 0.00 0.00 88 1013.3
20260509105155 13 224 0.0 1.6 0.00 0.00 0.00 88 1013.3
20260509105055 13 224 0.0 1.6 0.00 0.00 0.00 88 1013.3
20260509104954 13 165 0.0 1.6 0.00 0.00 0.00 88 1013.3
20260509104854 13 165 0.0 1.6 0.00 0.00 0.00 88 1013.3
20260509104750 13 165 0.0 1.6 0.00 0.00 0.00 88 1013.3
20260509104711 13 165 0.0 1.6 0.00 0.00 0.00 88 1013.3
20260509104648 13 165 0.0 1.6 0.00 0.00 0.00 88 1013.3
20260509104549 13 165 0.0 1.6 0.00 0.00 0.00 88 1013.3
20260509104448 13 165 0.0 1.6 0.00 0.00 0.00 88 1013.3
20260509104348 13 165 0.0 1.6 0.00 0.00 0.00 88 1013.3
20260509104249 13 207 0.0 1.6 0.00 0.00 0.00 88 1013.3
20260509104203 13 207 0.0 1.6 0.00 0.00 0.00 88 1013.3
20260509104147 13 207 0.0 1.6 0.00 0.00 0.00 88 1013.3
20260509104046 13 207 0.0 1.6 0.00 0.00 0.00 88 1013.3
20260509103944 13 207 0.0 1.6 0.00 0.00 0.00 88 1013.3
20260509103842 13 207 0.0 1.6 0.00 0.00 0.00 88 1013.3
20260509103742 13 207 0.0 1.6 0.00 0.00 0.00 88 1013.3
20260509103640 13 207 0.0 1.6 0.00 0.00 0.00 88 1013.3
20260509103538 13 207 0.0 1.6 0.00 0.00 0.00 88 1013.3
20260509103439 13 207 0.0 1.6 0.00 0.00 0.00 88 1013.3
20260509103336 13 207 0.0 1.6 0.00 0.00 0.00 88 1013.4
20260509103233 13 207 0.0 1.6 0.00 0.00 0.00 88 1013.4
20260509103130 13 207 0.0 1.6 0.00 0.00 0.00 88 1013.4
20260509103031 13 207 0.0 1.6 0.00 0.00 0.00 88 1013.4
20260509102931 13 207 0.0 1.6 0.00 0.00 0.00 88 1013.4
20260509102830 13 207 0.0 1.6 0.00 0.00 0.00 88 1013.4
20260509102730 13 207 0.0 1.6 0.00 0.00 0.00 88 1013.4
20260509102628 13 207 0.0 1.6 0.00 0.00 0.00 88 1013.4
20260509102528 13 207 0.0 1.6 0.00 0.00 0.00 88 1013.3
20260509102427 13 207 0.0 1.6 0.00 0.00 0.00 87 1013.4
20260509102324 13 207 0.0 1.6 0.00 0.00 0.00 87 1013.4
20260509102222 13 207 0.0 1.6 0.00 0.00 0.00 87 1013.3
20260509102140 13 207 0.0 3.2 0.00 0.00 0.00 87 1013.4
20260509102023 13 207 0.0 3.2 0.00 0.00 0.00 87 1013.4
20260509101920 13 207 0.0 3.2 0.00 0.00 0.00 87 1013.4
20260509101823 13 207 0.0 3.2 0.00 0.00 0.00 87 1013.4
20260509101714 13 207 0.0 3.2 0.00 0.00 0.00 87 1013.4
20260509101613 13 207 0.0 3.2 0.00 0.00 0.00 87 1013.4
20260509101513 13 207 0.0 3.2 0.00 0.00 0.00 87 1013.4
20260509101413 13 207 0.0 3.2 0.00 0.00 0.00 87 1013.4
20260509101312 13 207 0.0 3.2 0.00 0.00 0.00 87 1013.4
20260509101208 13 207 0.0 3.2 0.00 0.00 0.00 87 1013.4
20260509101107 13 207 0.0 1.6 0.00 0.00 0.00 87 1013.4
20260509101007 13 207 0.0 1.6 0.00 0.00 0.00 87 1013.4
20260509100906 13 207 0.0 1.6 0.00 0.00 0.00 87 1013.4
20260509100806 13 207 0.0 1.6 0.00 0.00 0.00 87 1013.4
20260509100706 13 207 0.0 1.6 0.00 0.00 0.00 87 1013.4
20260509100621 13 207 0.0 1.6 0.00 0.00 0.00 87 1013.4
20260509100606 13 207 0.0 1.6 0.00 0.00 0.00 87 1013.4
20260509100504 13 207 0.0 3.2 0.00 0.00 0.00 87 1013.4
20260509100402 13 207 0.0 3.2 0.00 0.00 0.00 87 1013.4
20260509100336 13 207 1.6 3.2 0.00 0.00 0.00 87 1013.4
20260509100300 13 207 0.0 3.2 0.00 0.00 0.00 87 1013.4
20260509100228 13 207 1.6 3.2 0.00 0.00 0.00 87 1013.4
20260509100055 13 207 1.6 3.2 0.00 0.00 0.00 87 1013.4
20260509095955 13 207 1.6 3.2 0.00 0.00 0.00 86 1013.4
20260509095854 13 207 1.6 3.2 0.00 0.00 0.00 86 1013.4
20260509095832 13 207 1.6 3.2 0.00 0.00 0.00 86 1013.4
20260509095754 13 207 1.6 3.2 0.00 0.00 0.00 86 1013.4
20260509095720 13 207 1.6 3.2 0.00 0.00 0.00 86 1013.4
20260509095552 13 200 1.6 3.2 0.00 0.00 0.00 86 1013.4
20260509095453 13 200 1.6 3.2 0.00 0.00 0.00 86 1013.4
20260509095351 13 225 1.6 3.2 0.00 0.00 0.00 87 1013.4
20260509095248 13 225 0.0 3.2 0.00 0.00 0.00 87 1013.5
20260509095146 13 217 0.0 3.2 0.00 0.00 0.00 87 1013.5
20260509095104 13 217 0.0 3.2 0.00 0.00 0.00 87 1013.4
20260509095047 13 216 0.0 3.2 0.00 0.00 0.00 87 1013.4
20260509094946 13 217 1.6 3.2 0.00 0.00 0.00 86 1013.5
20260509094844 13 217 0.0 3.2 0.00 0.00 0.00 86 1013.5
20260509094743 13 217 0.0 3.2 0.00 0.00 0.00 86 1013.5
20260509094638 13 176 1.6 3.2 0.00 0.00 0.00 86 1013.5
20260509094536 13 176 1.6 3.2 0.00 0.00 0.00 86 1013.5
20260509094437 13 224 1.6 3.2 0.00 0.00 0.00 86 1013.5
20260509094336 13 224 1.6 3.2 0.00 0.00 0.00 86 1013.5
20260509094236 13 207 1.6 3.2 0.00 0.00 0.00 87 1013.5
20260509094137 13 207 1.6 3.2 0.00 0.00 0.00 86 1013.5
20260509094034 13 207 1.6 3.2 0.00 0.00 0.00 86 1013.5
20260509093934 13 207 1.6 3.2 0.00 0.00 0.00 86 1013.5
20260509093833 13 207 1.6 3.2 0.00 0.00 0.00 87 1013.5
20260509093730 13 207 1.6 3.2 0.00 0.00 0.00 87 1013.5
20260509093628 13 221 0.0 3.2 0.00 0.00 0.00 87 1013.5
20260509093546 13 219 0.0 3.2 0.00 0.00 0.00 87 1013.5
20260509093529 13 221 0.0 3.2 0.00 0.00 0.00 87 1013.5
20260509093429 13 219 0.0 3.2 0.00 0.00 0.00 87 1013.5
20260509093327 13 221 0.0 3.2 0.00 0.00 0.00 87 1013.5
20260509093303 13 136 0.0 1.6 0.00 0.00 0.00 87 1013.6
20260509093224 13 136 0.0 1.6 0.00 0.00 0.00 87 1013.5
20260509093150 13 136 0.0 1.6 0.00 0.00 0.00 87 1013.6
20260509093019 13 136 0.0 1.6 0.00 0.00 0.00 87 1013.6
20260509092919 13 136 0.0 1.6 0.00 0.00 0.00 87 1013.6
20260509092818 13 135 0.0 1.6 0.00 0.00 0.00 87 1013.6
20260509092719 13 136 0.0 1.6 0.00 0.00 0.00 87 1013.5
20260509092617 13 136 0.0 1.6 0.00 0.00 0.00 86 1013.5
20260509092517 13 136 0.0 1.6 0.00 0.00 0.00 86 1013.5
20260509092416 13 136 0.0 1.6 0.00 0.00 0.00 86 1013.5
20260509092315 13 136 0.0 1.6 0.00 0.00 0.00 86 1013.5
20260509092252 13 136 0.0 1.6 0.00 0.00 0.00 86 1013.5
20260509092213 13 136 0.0 1.6 0.00 0.00 0.00 86 1013.5
20260509092138 13 136 0.0 1.6 0.00 0.00 0.00 86 1013.5
20260509092006 13 135 0.0 1.6 0.00 0.00 0.00 86 1013.5
20260509091906 13 136 0.0 1.6 0.00 0.00 0.00 86 1013.5
20260509091807 13 135 0.0 1.6 0.00 0.00 0.00 86 1013.5
20260509091706 13 136 0.0 1.6 0.00 0.00 0.00 86 1013.5
20260509091601 13 136 0.0 1.6 0.00 0.00 0.00 86 1013.5
20260509091522 13 136 0.0 1.6 0.00 0.00 0.00 86 1013.5
20260509091500 13 136 0.0 1.6 0.00 0.00 0.00 86 1013.5
20260509091401 13 136 0.0 1.6 0.00 0.00 0.00 86 1013.5
20260509091301 13 136 0.0 1.6 0.00 0.00 0.00 86 1013.5
20260509091200 13 136 0.0 1.6 0.00 0.00 0.00 86 1013.5
20260509091056 13 135 0.0 1.6 0.00 0.00 0.00 86 1013.5
20260509091016 13 136 0.0 1.6 0.00 0.00 0.00 86 1013.5
20260509090955 13 136 0.0 1.6 0.00 0.00 0.00 86 1013.5
20260509090854 13 135 0.0 1.6 0.00 0.00 0.00 86 1013.5
20260509090754 13 135 0.0 1.6 0.00 0.00 0.00 85 1013.6
20260509090740 13 136 0.0 1.6 0.00 0.00 0.00 86 1013.5
20260509090654 13 136 0.0 1.6 0.00 0.00 0.00 86 1013.6
20260509090620 13 136 0.0 1.6 0.00 0.00 0.00 86 1013.5
20260509090449 13 136 0.0 1.6 0.00 0.00 0.00 86 1013.5
20260509090348 13 135 0.0 1.6 0.00 0.00 0.00 85 1013.5
20260509090248 13 135 0.0 1.6 0.00 0.00 0.00 85 1013.5
20260509090148 13 135 0.0 1.6 0.00 0.00 0.00 85 1013.5
20260509090045 13 136 0.0 1.6 0.00 0.00 0.00 85 1013.5
20260509090004 13 135 0.0 1.6 0.00 0.00 0.00 85 1013.5
20260509085942 13 136 0.0 1.6 0.00 0.00 0.00 85 1013.5
20260509085843 13 135 0.0 0.0 0.00 0.00 0.00 85 1013.5
20260509085742 13 136 0.0 0.0 0.00 0.00 0.00 85 1013.5
20260509085643 13 135 0.0 0.0 0.00 0.00 0.00 85 1013.5
20260509085536 13 136 0.0 0.0 0.00 0.00 0.00 85 1013.5
20260509085458 13 136 0.0 0.0 0.00 0.00 0.00 85 1013.5
20260509085437 13 136 0.0 1.6 0.00 0.00 0.00 85 1013.5
20260509085336 13 136 0.0 1.6 0.00 0.00 0.00 85 1013.6
20260509085237 13 136 0.0 1.6 0.00 0.00 0.00 85 1013.6
20260509085136 13 136 0.0 1.6 0.00 0.00 0.00 85 1013.6
20260509085036 13 136 0.0 1.6 0.00 0.00 0.00 85 1013.6
20260509084934 13 136 0.0 1.6 0.00 0.00 0.00 85 1013.6
20260509084835 13 136 0.0 1.6 0.00 0.00 0.00 85 1013.6
20260509084733 13 136 0.0 3.2 0.00 0.00 0.00 85 1013.6
20260509084707 14 136 0.0 3.2 0.00 0.00 0.00 85 1013.6
20260509084630 13 136 0.0 3.2 0.00 0.00 0.00 85 1013.6
20260509084555 13 135 0.0 3.2 0.00 0.00 0.00 85 1013.6
20260509084425 14 136 0.0 3.2 0.00 0.00 0.00 84 1013.6
20260509084325 14 135 1.6 3.2 0.00 0.00 0.00 84 1013.6
20260509084224 14 136 1.6 3.2 0.00 0.00 0.00 84 1013.6
20260509084124 14 136 1.6 3.2 0.00 0.00 0.00 84 1013.6
20260509084024 14 136 1.6 3.2 0.00 0.00 0.00 84 1013.6
20260509083940 14 136 1.6 3.2 0.00 0.00 0.00 84 1013.6
20260509083923 14 135 1.6 3.2 0.00 0.00 0.00 84 1013.6
20260509083821 14 135 1.6 3.2 0.00 0.00 0.00 84 1013.7
20260509083721 14 137 1.6 3.2 0.00 0.00 0.00 84 1013.6
20260509083702 14 136 1.6 3.2 0.00 0.00 0.00 84 1013.6
20260509083619 14 136 1.6 3.2 0.00 0.00 0.00 84 1013.7
20260509083547 14 137 1.6 3.2 0.00 0.00 0.00 84 1013.6
20260509083416 14 137 1.6 3.2 0.00 0.00 0.00 84 1013.6
20260509083317 14 136 1.6 3.2 0.00 0.00 0.00 84 1013.6
20260509083215 14 137 1.6 3.2 0.00 0.00 0.00 84 1013.6
20260509083112 14 136 1.6 3.2 0.00 0.00 0.00 84 1013.6
20260509083006 14 143 0.0 3.2 0.00 0.00 0.00 84 1013.6
20260509082929 14 137 0.0 1.6 0.00 0.00 0.00 84 1013.6
20260509082907 14 136 0.0 1.6 0.00 0.00 0.00 84 1013.6
20260509082810 14 137 0.0 1.6 0.00 0.00 0.00 84 1013.6
20260509082707 14 137 1.6 1.6 0.00 0.00 0.00 84 1013.7
20260509082606 14 137 1.6 1.6 0.00 0.00 0.00 84 1013.7
20260509082502 14 137 0.0 1.6 0.00 0.00 0.00 84 1013.6
20260509082421 14 136 0.0 1.6 0.00 0.00 0.00 84 1013.6
20260509082402 14 137 0.0 1.6 0.00 0.00 0.00 84 1013.6
20260509082306 14 136 0.0 1.6 0.00 0.00 0.00 84 1013.7
20260509082203 14 136 0.0 3.2 0.00 0.00 0.00 84 1013.7
20260509082102 14 137 0.0 4.8 0.00 0.00 0.00 84 1013.7
20260509081959 14 137 0.0 4.8 0.00 0.00 0.00 84 1013.7
20260509081916 14 137 0.0 4.8 0.00 0.00 0.00 84 1013.7
20260509081859 14 136 0.0 4.8 0.00 0.00 0.00 84 1013.7
20260509081758 14 137 1.6 4.8 0.00 0.00 0.00 84 1013.7
20260509081656 14 136 1.6 4.8 0.00 0.00 0.00 84 1013.7
20260509081554 14 138 1.6 4.8 0.00 0.00 0.00 84 1013.8
20260509081449 14 138 1.6 4.8 0.00 0.00 0.00 84 1013.8
20260509081410 14 138 1.6 4.8 0.00 0.00 0.00 84 1013.7
20260509081348 14 138 1.6 4.8 0.00 0.00 0.00 84 1013.7
20260509081248 14 138 1.6 4.8 0.00 0.00 0.00 84 1013.8
20260509081149 14 120 1.6 4.8 0.00 0.00 0.00 84 1013.8
20260509081048 14 119 1.6 4.8 0.00 0.00 0.00 84 1013.8
20260509080944 14 119 1.6 4.8 0.00 0.00 0.00 84 1013.8
20260509080904 14 119 1.6 4.8 0.00 0.00 0.00 84 1013.8
20260509080843 14 119 1.6 4.8 0.00 0.00 0.00 84 1013.8
20260509080742 14 140 1.6 3.2 0.00 0.00 0.00 84 1013.8
20260509080642 14 139 0.0 3.2 0.00 0.00 0.00 84 1013.8
20260509080541 14 133 0.0 3.2 0.00 0.00 0.00 84 1013.8
20260509080439 14 143 0.0 3.2 0.00 0.00 0.00 84 1013.8
20260509080358 14 136 0.0 3.2 0.00 0.00 0.00 84 1013.8
20260509080338 14 137 0.0 3.2 0.00 0.00 0.00 84 1013.8
20260509080239 14 137 0.0 3.2 0.00 0.00 0.00 84 1013.8
20260509080138 14 137 0.0 3.2 0.00 0.00 0.00 84 1013.8
20260509080038 14 136 0.0 3.2 0.00 0.00 0.00 85 1013.8
20260509075932 14 138 0.0 0.0 0.00 0.00 0.00 85 1013.8
20260509075852 14 139 0.0 0.0 0.00 0.00 0.00 85 1013.8
20260509075830 15 138 0.0 0.0 0.00 0.00 0.00 85 1013.9
20260509075731 15 138 0.0 1.6 0.00 0.00 0.00 84 1013.8
20260509075630 15 138 0.0 1.6 0.00 0.00 0.00 84 1013.9
20260509075532 15 139 0.0 3.2 0.00 0.00 0.00 84 1013.9
20260509075424 15 138 0.0 3.2 0.00 0.00 0.00 84 1013.9
20260509075347 15 139 0.0 3.2 0.00 0.00 0.00 84 1013.9
20260509075325 15 138 0.0 3.2 0.00 0.00 0.00 84 1013.9
20260509075224 15 139 0.0 3.2 0.00 0.00 0.00 84 1013.9
20260509075125 15 139 0.0 3.2 0.00 0.00 0.00 84 1013.9
20260509075024 15 138 0.0 3.2 0.00 0.00 0.00 84 1013.9
20260509074919 15 138 0.0 3.2 0.00 0.00 0.00 84 1013.9
20260509074819 15 139 0.0 3.2 0.00 0.00 0.00 84 1013.9
20260509074718 15 139 0.0 3.2 0.00 0.00 0.00 84 1013.9
20260509074618 15 138 0.0 3.2 0.00 0.00 0.00 84 1013.9
20260509074518 15 138 0.0 1.6 0.00 0.00 0.00 84 1013.8
20260509074414 15 139 0.0 1.6 0.00 0.00 0.00 84 1013.8
20260509074312 15 139 0.0 1.6 0.00 0.00 0.00 84 1013.8
20260509074212 15 138 0.0 1.6 0.00 0.00 0.00 84 1013.8
20260509074112 15 138 0.0 1.6 0.00 0.00 0.00 84 1013.7
20260509074013 15 139 0.0 1.6 0.00 0.00 0.00 84 1013.8
20260509073906 15 139 0.0 1.6 0.00 0.00 0.00 84 1013.8
20260509073829 15 139 0.0 1.6 0.00 0.00 0.00 83 1013.8
20260509073810 15 138 0.0 1.6 0.00 0.00 0.00 83 1013.8
20260509073706 15 138 0.0 1.6 0.00 0.00 0.00 83 1013.8
20260509073606 15 139 0.0 1.6 0.00 0.00 0.00 83 1013.8
20260509073506 15 138 0.0 0.0 0.00 0.00 0.00 83 1013.8
20260509073406 15 138 0.0 0.0 0.00 0.00 0.00 83 1013.8
20260509073330 15 138 0.0 0.0 0.00 0.00 0.00 83 1013.8
20260509073305 15 138 0.0 0.0 0.00 0.00 0.00 83 1013.8
20260509073205 15 138 0.0 0.0 0.00 0.00 0.00 83 1013.9
20260509073103 15 138 0.0 1.6 0.00 0.00 0.00 83 1013.8
20260509073000 15 139 0.0 1.6 0.00 0.00 0.00 83 1013.8
20260509072856 15 138 0.0 1.6 0.00 0.00 0.00 82 1013.8
20260509072825 15 138 0.0 1.6 0.00 0.00 0.00 82 1013.8
20260509072754 15 138 0.0 1.6 0.00 0.00 0.00 82 1013.8
20260509072655 15 138 0.0 1.6 0.00 0.00 0.00 83 1013.8
20260509072554 15 138 0.0 1.6 0.00 0.00 0.00 83 1013.8
20260509072543 15 139 0.0 1.6 0.00 0.00 0.00 82 1013.7
20260509072454 15 138 0.0 1.6 0.00 0.00 0.00 82 1013.8
20260509072436 15 138 0.0 1.6 0.00 0.00 0.00 82 1013.7
20260509072252 15 139 0.0 1.6 0.00 0.00 0.00 82 1013.7
20260509072150 15 138 0.0 1.6 0.00 0.00 0.00 82 1013.7
20260509072050 15 138 0.0 1.6 0.00 0.00 0.00 82 1013.7
20260509071947 15 138 0.0 1.6 0.00 0.00 0.00 82 1013.7
20260509071824 15 138 0.0 1.6 0.00 0.00 0.00 82 1013.7
20260509071742 15 138 0.0 1.6 0.00 0.00 0.00 82 1013.7
20260509071642 15 139 0.0 1.6 0.00 0.00 0.00 82 1013.6
20260509071542 15 138 0.0 1.6 0.00 0.00 0.00 83 1013.7
20260509071442 15 138 0.0 1.6 0.00 0.00 0.00 83 1013.7
20260509071324 15 138 0.0 1.6 0.00 0.00 0.00 83 1013.7
20260509071237 15 139 0.0 1.6 0.00 0.00 0.00 82 1013.7
20260509071137 15 138 0.0 1.6 0.00 0.00 0.00 82 1013.7
20260509071037 15 139 0.0 1.6 0.00 0.00 0.00 82 1013.6
20260509070936 15 138 0.0 1.6 0.00 0.00 0.00 82 1013.7
20260509070824 15 139 0.0 1.6 0.00 0.00 0.00 82 1013.6
20260509070805 15 124 0.0 0.0 0.00 0.00 0.00 82 1013.6
20260509070734 15 139 0.0 1.6 0.00 0.00 0.00 82 1013.6
20260509070656 15 124 0.0 1.6 0.00 0.00 0.00 82 1013.6
20260509070532 15 124 0.0 1.6 0.00 0.00 0.00 82 1013.6
20260509070443 15 124 0.0 1.6 0.00 0.00 0.00 82 1013.6
20260509070435 15 124 0.0 0.0 0.00 0.00 0.00 82 1013.6
20260509070228 15 124 0.0 0.0 0.00 0.00 0.00 82 1013.6
20260509070128 15 124 0.0 1.6 0.00 0.00 0.00 82 1013.6
20260509070027 15 124 0.0 1.6 0.00 0.00 0.00 82 1013.7
20260509065924 15 124 0.0 1.6 0.00 0.00 0.00 82 1013.7
20260509065825 15 124 0.0 1.6 0.00 0.00 0.00 81 1013.7
20260509065723 15 126 0.0 1.6 0.00 0.00 0.00 81 1013.7
20260509065621 15 124 0.0 1.6 0.00 0.00 0.00 81 1013.7
20260509065521 15 124 0.0 1.6 0.00 0.00 0.00 81 1013.6
20260509065418 16 124 0.0 1.6 0.00 0.00 0.00 81 1013.7
20260509065317 16 124 0.0 1.6 0.00 0.00 0.00 81 1013.6
20260509065214 16 124 0.0 1.6 0.00 0.00 0.00 81 1013.6
20260509065122 16 124 0.0 1.6 0.00 0.00 0.00 81 1013.6
20260509065013 16 117 0.0 1.6 0.00 0.00 0.00 81 1013.7
20260509064910 16 117 0.0 1.6 0.00 0.00 0.00 81 1013.7
20260509064810 16 117 0.0 3.2 0.00 0.00 0.00 80 1013.7
20260509064708 16 117 0.0 3.2 0.00 0.00 0.00 80 1013.7
20260509064606 16 105 0.0 3.2 0.00 0.00 0.00 80 1013.7
20260509064546 16 105 0.0 3.2 0.00 0.00 0.00 80 1013.7
20260509064506 16 105 0.0 3.2 0.00 0.00 0.00 80 1013.6
20260509064434 16 104 0.0 3.2 0.00 0.00 0.00 80 1013.6
20260509064301 16 104 0.0 3.2 0.00 0.00 0.00 80 1013.7
20260509064200 16 105 0.0 3.2 0.00 0.00 0.00 80 1013.7
20260509064101 16 104 0.0 4.8 0.00 0.00 0.00 80 1013.7
20260509064001 16 105 1.6 8.0 0.00 0.00 0.00 79 1013.7
20260509063858 16 96 1.6 8.0 0.00 0.00 0.00 79 1013.7
20260509063820 16 229 1.6 8.0 0.00 0.00 0.00 79 1013.7
20260509063755 16 229 1.6 8.0 0.00 0.00 0.00 79 1013.7
20260509063652 16 229 1.6 8.0 0.00 0.00 0.00 79 1013.7
20260509063555 16 229 1.6 8.0 0.00 0.00 0.00 79 1013.7
20260509063546 16 229 1.6 8.0 0.00 0.00 0.00 79 1013.7
20260509063452 16 230 1.6 8.0 0.00 0.00 0.00 79 1013.7
20260509063429 16 229 1.6 8.0 0.00 0.00 0.00 79 1013.7
20260509063249 16 229 1.6 8.0 0.00 0.00 0.00 79 1013.7
20260509063147 16 229 1.6 8.0 0.00 0.00 0.00 79 1013.7
20260509063047 16 228 1.6 8.0 0.00 0.00 0.00 79 1013.7
20260509062946 16 232 1.6 6.4 0.00 0.00 0.00 79 1013.7
20260509062846 16 219 0.0 6.4 0.00 0.00 0.00 79 1013.7
20260509062820 16 245 0.0 6.4 0.00 0.00 0.00 79 1013.7
20260509062740 16 214 0.0 4.8 0.00 0.00 0.00 79 1013.7
20260509062641 16 217 0.0 4.8 0.00 0.00 0.00 79 1013.7
20260509062541 16 217 0.0 6.4 0.00 0.00 0.00 79 1013.7
20260509062441 16 217 0.0 6.4 0.00 0.00 0.00 79 1013.7
20260509062320 16 217 1.6 6.4 0.00 0.00 0.00 79 1013.6
20260509062241 16 217 1.6 6.4 0.00 0.00 0.00 79 1013.6
20260509062139 16 217 1.6 6.4 0.00 0.00 0.00 79 1013.7
20260509062038 16 217 1.6 6.4 0.00 0.00 0.00 79 1013.6
20260509061938 16 217 1.6 6.4 0.00 0.00 0.00 79 1013.6
20260509061820 16 238 1.6 6.4 0.00 0.00 0.00 79 1013.6
20260509061736 16 195 1.6 6.4 0.00 0.00 0.00 79 1013.7
20260509061631 16 230 1.6 4.8 0.00 0.00 0.00 79 1013.7
20260509061530 16 231 1.6 4.8 0.00 0.00 0.00 79 1013.7
20260509061428 16 231 1.6 4.8 0.00 0.00 0.00 79 1013.7
20260509061317 16 231 0.0 4.8 0.00 0.00 0.00 79 1013.8
20260509061222 16 229 0.0 4.8 0.00 0.00 0.00 79 1013.7
20260509061123 16 239 0.0 4.8 0.00 0.00 0.00 79 1013.7
20260509061023 16 239 0.0 4.8 0.00 0.00 0.00 79 1013.7
20260509060921 16 231 0.0 1.6 0.00 0.00 0.00 79 1013.7
20260509060820 16 230 0.0 1.6 0.00 0.00 0.00 79 1013.7
20260509060715 16 231 0.0 3.2 0.00 0.00 0.00 78 1013.7
20260509060613 16 231 0.0 3.2 0.00 0.00 0.00 78 1013.7
20260509060412 16 230 0.0 3.2 0.00 0.00 0.00 78 1013.7
20260509060312 16 231 0.0 3.2 0.00 0.00 0.00 78 1013.7
20260509060208 16 231 0.0 3.2 0.00 0.00 0.00 78 1013.7
20260509060109 16 231 0.0 3.2 0.00 0.00 0.00 78 1013.7
20260509060008 16 231 1.6 8.0 0.00 0.00 0.00 78 1013.7
20260509055909 17 231 1.6 8.0 0.00 0.00 0.00 78 1013.7
20260509055806 17 231 1.6 8.0 0.00 0.00 0.00 78 1013.7
20260509055702 17 230 1.6 8.0 0.00 0.00 0.00 78 1013.7
20260509055601 17 231 1.6 8.0 0.00 0.00 0.00 78 1013.6
20260509055501 17 231 1.6 8.0 0.00 0.00 0.00 78 1013.6
20260509055401 17 232 1.6 8.0 0.00 0.00 0.00 78 1013.6
20260509055312 17 242 1.6 8.0 0.00 0.00 0.00 77 1013.6
20260509055301 17 242 1.6 8.0 0.00 0.00 0.00 77 1013.6
20260509055201 17 242 1.6 8.0 0.00 0.00 0.00 77 1013.6
20260509055058 17 242 1.6 8.0 0.00 0.00 0.00 77 1013.6
20260509054957 17 238 1.6 8.0 0.00 0.00 0.00 78 1013.6
20260509054856 17 225 1.6 6.4 0.00 0.00 0.00 77 1013.6
20260509054814 17 175 1.6 6.4 0.00 0.00 0.00 78 1013.6
20260509054801 17 214 1.6 8.0 0.00 0.00 0.00 77 1013.6
20260509054754 17 228 1.6 6.4 0.00 0.00 0.00 78 1013.6
20260509054652 17 232 1.6 4.8 0.00 0.00 0.00 77 1013.6
20260509054640 17 232 1.6 4.8 0.00 0.00 0.00 77 1013.6
20260509054454 17 214 1.6 4.8 0.00 0.00 0.00 77 1013.6
20260509054424 17 214 1.6 8.0 0.00 0.00 0.00 77 1013.6
20260509054248 17 214 1.6 8.0 0.00 0.00 0.00 77 1013.6
20260509054142 17 235 1.6 8.0 0.00 0.00 0.00 77 1013.5
20260509054043 17 236 1.6 8.0 0.00 0.00 0.00 77 1013.6
20260509054030 17 236 1.6 8.0 0.00 0.00 0.00 77 1013.5
20260509053948 17 236 1.6 8.0 0.00 0.00 0.00 77 1013.5
20260509053920 17 236 1.6 8.0 0.00 0.00 0.00 77 1013.5
20260509053742 17 232 1.6 8.0 0.00 0.00 0.00 77 1013.5
20260509053637 17 222 1.6 8.0 0.00 0.00 0.00 77 1013.5
20260509053537 17 212 1.6 8.0 0.00 0.00 0.00 77 1013.5
20260509053436 17 206 1.6 8.0 0.00 0.00 0.00 77 1013.5
20260509053308 17 203 1.6 8.0 0.00 0.00 0.00 77 1013.5
20260509053237 17 203 1.6 8.0 0.00 0.00 0.00 77 1013.5
20260509053133 17 321 1.6 8.0 0.00 0.00 0.00 76 1013.5
20260509053031 17 235 1.6 8.0 0.00 0.00 0.00 76 1013.5
20260509052931 17 218 1.6 9.7 0.00 0.00 0.00 76 1013.5
20260509052830 17 240 1.6 9.7 0.00 0.00 0.00 76 1013.5
20260509052808 17 231 1.6 9.7 0.00 0.00 0.00 76 1013.5
20260509052730 17 218 1.6 9.7 0.00 0.00 0.00 76 1013.5
20260509052625 17 219 3.2 9.7 0.00 0.00 0.00 76 1013.5
20260509052524 17 214 3.2 9.7 0.00 0.00 0.00 76 1013.5
20260509052425 17 281 3.2 9.7 0.00 0.00 0.00 76 1013.5
20260509052325 17 214 3.2 14.5 0.00 0.00 0.00 76 1013.4
20260509052311 17 250 3.2 14.5 0.00 0.00 0.00 76 1013.4
20260509052224 17 239 3.2 14.5 0.00 0.00 0.00 76 1013.4
20260509052123 17 232 3.2 14.5 0.00 0.00 0.00 75 1013.5
20260509052032 17 245 3.2 14.5 0.00 0.00 0.00 75 1013.4
20260509052023 17 246 3.2 14.5 0.00 0.00 0.00 75 1013.4
20260509051928 17 270 3.2 14.5 0.00 0.00 0.00 75 1013.4
20260509051919 17 245 3.2 14.5 0.00 0.00 0.00 75 1013.4
20260509051718 17 236 3.2 14.5 0.00 0.00 0.00 75 1013.4
20260509051615 17 298 3.2 14.5 0.00 0.00 0.00 75 1013.4
20260509051513 17 222 3.2 14.5 0.00 0.00 0.00 75 1013.4
20260509051414 17 210 3.2 14.5 0.00 0.00 0.00 75 1013.4
20260509051320 17 242 3.2 9.7 0.00 0.00 0.00 75 1013.4
20260509051309 17 219 3.2 9.7 0.00 0.00 0.00 75 1013.4
20260509051212 17 270 3.2 9.7 0.00 0.00 0.00 75 1013.4
20260509051110 17 239 3.2 9.7 0.00 0.00 0.00 75 1013.3
20260509051010 17 229 3.2 9.7 0.00 0.00 0.00 75 1013.3
20260509050909 17 231 3.2 9.7 0.00 0.00 0.00 75 1013.3
20260509050815 17 224 3.2 9.7 0.00 0.00 0.00 75 1013.4
20260509050808 17 223 3.2 9.7 0.00 0.00 0.00 75 1013.4
20260509050707 17 226 3.2 9.7 0.00 0.00 0.00 75 1013.3
20260509050603 18 250 3.2 9.7 0.00 0.00 0.00 75 1013.3
20260509050503 18 242 3.2 9.7 0.00 0.00 0.00 75 1013.4
20260509050403 18 232 3.2 9.7 0.00 0.00 0.00 75 1013.4
20260509050311 18 262 3.2 9.7 0.00 0.00 0.00 75 1013.4
20260509050302 18 262 3.2 9.7 0.00 0.00 0.00 75 1013.4
20260509050201 18 240 3.2 9.7 0.00 0.00 0.00 75 1013.4
20260509050057 18 257 4.8 16.1 0.00 0.00 0.00 74 1013.4
20260509050034 18 243 4.8 16.1 0.00 0.00 0.00 74 1013.4
20260509045955 18 228 4.8 16.1 0.00 0.00 0.00 74 1013.4
20260509045917 18 250 4.8 16.1 0.00 0.00 0.00 74 1013.4
20260509045759 18 235 4.8 16.1 0.00 0.00 0.00 74 1013.4
20260509045654 18 255 4.8 16.1 0.00 0.00 0.00 74 1013.4
20260509045551 18 229 4.8 16.1 0.00 0.00 0.00 74 1013.4
20260509045449 18 248 4.8 16.1 0.00 0.00 0.00 74 1013.4
20260509045348 18 274 3.2 16.1 0.00 0.00 0.00 74 1013.4
20260509045306 18 250 3.2 16.1 0.00 0.00 0.00 74 1013.4
20260509045248 18 222 3.2 16.1 0.00 0.00 0.00 74 1013.4
20260509045146 18 280 3.2 16.1 0.00 0.00 0.00 74 1013.4
20260509045041 18 236 3.2 12.9 0.00 0.00 0.00 74 1013.4
20260509044941 18 236 4.8 12.9 0.00 0.00 0.00 74 1013.3
20260509044840 18 225 4.8 12.9 0.00 0.00 0.00 74 1013.4
20260509044804 18 232 4.8 12.9 0.00 0.00 0.00 74 1013.4
20260509044751 18 214 3.2 12.9 0.00 0.00 0.00 73 1013.3
20260509044739 18 223 4.8 12.9 0.00 0.00 0.00 74 1013.4
20260509044644 18 259 4.8 12.9 0.00 0.00 0.00 73 1013.4
20260509044635 18 238 4.8 12.9 0.00 0.00 0.00 73 1013.4
20260509044432 18 228 3.2 12.9 0.00 0.00 0.00 73 1013.4
20260509044416 18 269 3.2 12.9 0.00 0.00 0.00 73 1013.3
20260509044234 18 281 3.2 12.9 0.00 0.00 0.00 73 1013.3
20260509044131 18 259 3.2 12.9 0.00 0.00 0.00 73 1013.3
20260509044025 18 252 3.2 12.9 0.00 0.00 0.00 73 1013.4
20260509043925 18 232 3.2 12.9 0.00 0.00 0.00 73 1013.3
20260509043824 18 256 3.2 12.9 0.00 0.00 0.00 73 1013.3
20260509043806 18 263 3.2 12.9 0.00 0.00 0.00 73 1013.3
20260509043725 18 263 1.6 12.9 0.00 0.00 0.00 73 1013.3
20260509043624 18 253 1.6 11.3 0.00 0.00 0.00 73 1013.3
20260509043521 18 210 1.6 11.3 0.00 0.00 0.00 73 1013.3
20260509043419 18 240 1.6 11.3 0.00 0.00 0.00 73 1013.4
20260509043318 18 214 1.6 11.3 0.00 0.00 0.00 73 1013.4
20260509043258 18 226 1.6 11.3 0.00 0.00 0.00 73 1013.4
20260509043218 18 248 1.6 11.3 0.00 0.00 0.00 73 1013.4
20260509043118 18 225 1.6 8.0 0.00 0.00 0.00 73 1013.4
20260509043017 18 262 1.6 8.0 0.00 0.00 0.00 73 1013.4
20260509042916 19 270 1.6 8.0 0.00 0.00 0.00 73 1013.4
20260509042815 19 232 1.6 6.4 0.00 0.00 0.00 73 1013.3
20260509042758 19 233 1.6 4.8 0.00 0.00 0.00 73 1013.3
20260509042715 19 233 1.6 4.8 0.00 0.00 0.00 73 1013.3
20260509042613 19 246 1.6 9.7 0.00 0.00 0.00 73 1013.3
20260509042513 19 228 1.6 9.7 0.00 0.00 0.00 73 1013.3
20260509042411 19 228 1.6 9.7 0.00 0.00 0.00 73 1013.3
20260509042309 19 207 3.2 9.7 0.00 0.00 0.00 73 1013.3
20260509042246 19 250 3.2 9.7 0.00 0.00 0.00 73 1013.3
20260509042209 19 250 3.2 9.7 0.00 0.00 0.00 72 1013.3
20260509042106 19 253 3.2 9.7 0.00 0.00 0.00 72 1013.3
20260509042001 19 230 3.2 12.9 0.00 0.00 0.00 72 1013.3
20260509041901 19 229 3.2 12.9 0.00 0.00 0.00 72 1013.3
20260509041800 19 250 4.8 12.9 0.00 0.00 0.00 72 1013.3
20260509041740 19 262 4.8 12.9 0.00 0.00 0.00 72 1013.2
20260509041701 19 253 4.8 12.9 0.00 0.00 0.00 72 1013.2
20260509041600 19 232 3.2 12.9 0.00 0.00 0.00 72 1013.2
20260509041455 19 232 4.8 12.9 0.00 0.00 0.00 72 1013.2
20260509041354 19 226 3.2 12.9 0.00 0.00 0.00 72 1013.2
20260509041255 19 257 3.2 12.9 0.00 0.00 0.00 72 1013.2
20260509041239 19 212 3.2 12.9 0.00 0.00 0.00 72 1013.2
20260509041154 19 239 3.2 12.9 0.00 0.00 0.00 72 1013.2
20260509041054 19 249 3.2 12.9 0.00 0.00 0.00 72 1013.1
20260509040953 19 233 3.2 9.7 0.00 0.00 0.00 72 1013.1
20260509040852 19 232 3.2 9.7 0.00 0.00 0.00 72 1013.1
20260509040756 20 245 1.6 9.7 0.00 0.00 0.00 72 1013.2
20260509040729 20 228 3.2 9.7 0.00 0.00 0.00 72 1013.1
20260509040651 20 250 3.2 9.7 0.00 0.00 0.00 72 1013.1
20260509040548 20 250 3.2 9.7 0.00 0.00 0.00 72 1013.1
20260509040442 20 214 3.2 9.7 0.00 0.00 0.00 72 1013.1
20260509040342 20 214 3.2 9.7 0.00 0.00 0.00 72 1013.1
20260509040243 20 233 3.2 9.7 0.00 0.00 0.00 71 1013.1
20260509040221 20 281 3.2 9.7 0.00 0.00 0.00 71 1013.1
20260509040143 20 225 3.2 9.7 0.00 0.00 0.00 71 1013.1
20260509040042 20 243 3.2 9.7 0.00 0.00 0.00 71 1013.0
20260509035940 20 229 3.2 8.0 0.00 0.00 0.00 71 1013.1
20260509035841 20 252 3.2 8.0 0.00 0.00 0.00 71 1013.0
20260509035739 20 235 3.2 8.0 0.00 0.00 0.00 71 1012.9
20260509035717 20 252 3.2 11.3 0.00 0.00 0.00 71 1012.9
20260509035639 20 245 3.2 11.3 0.00 0.00 0.00 71 1012.9
20260509035537 20 239 3.2 11.3 0.00 0.00 0.00 71 1013.0
20260509035435 20 229 3.2 11.3 0.00 0.00 0.00 71 1013.0
20260509035333 20 256 3.2 11.3 0.00 0.00 0.00 71 1012.9
20260509035236 20 229 3.2 11.3 0.00 0.00 0.00 71 1013.0
20260509035211 20 235 3.2 11.3 0.00 0.00 0.00 71 1013.0
20260509035132 20 232 4.8 11.3 0.00 0.00 0.00 71 1012.9
20260509035030 20 248 4.8 14.5 0.00 0.00 0.00 71 1012.9
20260509034926 20 239 4.8 14.5 0.00 0.00 0.00 70 1012.9
20260509034827 20 253 4.8 14.5 0.00 0.00 0.00 70 1012.9
20260509034728 20 239 4.8 14.5 0.00 0.00 0.00 70 1012.9
20260509034718 20 250 4.8 14.5 0.00 0.00 0.00 70 1012.9
20260509034627 20 302 4.8 14.5 0.00 0.00 0.00 70 1012.9
20260509034524 20 250 4.8 14.5 0.00 0.00 0.00 70 1012.9
20260509034421 20 235 4.8 14.5 0.00 0.00 0.00 70 1012.9
20260509034318 20 263 4.8 14.5 0.00 0.00 0.00 70 1012.9
20260509034219 20 186 4.8 16.1 0.00 0.00 0.00 70 1012.9
20260509034158 20 197 4.8 16.1 0.00 0.00 0.00 70 1012.9
20260509034118 20 256 4.8 16.1 0.00 0.00 0.00 70 1012.9
20260509034018 20 250 4.8 16.1 0.00 0.00 0.00 70 1012.9
20260509033914 20 228 4.8 16.1 0.00 0.00 0.00 70 1012.9
20260509033815 20 228 6.4 16.1 0.00 0.00 0.00 70 1012.9
20260509033715 20 239 6.4 16.1 0.00 0.00 0.00 70 1012.9
20260509033651 20 239 6.4 16.1 0.00 0.00 0.00 70 1012.9
20260509033615 21 239 6.4 16.1 0.00 0.00 0.00 70 1012.9
20260509033512 21 236 6.4 16.1 0.00 0.00 0.00 70 1012.9
20260509033409 21 256 6.4 16.1 0.00 0.00 0.00 70 1012.9
20260509033307 21 250 4.8 16.1 0.00 0.00 0.00 70 1012.9
20260509033210 21 256 4.8 16.1 0.00 0.00 0.00 70 1012.9
20260509033153 21 239 4.8 16.1 0.00 0.00 0.00 70 1012.9
20260509033107 21 237 4.8 16.1 0.00 0.00 0.00 70 1012.9
20260509033006 21 208 4.8 14.5 0.00 0.00 0.00 70 1012.9
20260509032900 21 236 4.8 14.5 0.00 0.00 0.00 70 1012.9
20260509032801 21 221 4.8 14.5 0.00 0.00 0.00 70 1013.0
20260509032701 21 225 4.8 14.5 0.00 0.00 0.00 70 1012.9
20260509032650 21 229 4.8 14.5 0.00 0.00 0.00 70 1012.9
20260509032600 21 229 6.4 14.5 0.00 0.00 0.00 70 1012.9
20260509032501 21 223 4.8 14.5 0.00 0.00 0.00 70 1012.9
20260509032357 21 239 4.8 14.5 0.00 0.00 0.00 70 1013.0
20260509032257 21 250 4.8 14.5 0.00 0.00 0.00 70 1012.9
20260509032159 21 211 6.4 14.5 0.00 0.00 0.00 70 1012.9
20260509032148 21 197 6.4 14.5 0.00 0.00 0.00 70 1012.9
20260509032056 21 248 4.8 14.5 0.00 0.00 0.00 70 1012.9
20260509031955 21 229 4.8 12.9 0.00 0.00 0.00 70 1012.9
20260509031849 21 231 3.2 12.9 0.00 0.00 0.00 70 1012.9
20260509031749 21 233 3.2 11.3 0.00 0.00 0.00 70 1012.9
20260509031655 21 268 3.2 11.3 0.00 0.00 0.00 70 1012.9
20260509031648 21 269 3.2 11.3 0.00 0.00 0.00 70 1012.9
20260509031549 21 193 3.2 11.3 0.00 0.00 0.00 70 1013.0
20260509031448 21 226 4.8 12.9 0.00 0.00 0.00 70 1012.9
20260509031345 21 260 4.8 12.9 0.00 0.00 0.00 70 1012.9
20260509031243 21 224 4.8 12.9 0.00 0.00 0.00 69 1012.9
20260509031150 21 225 4.8 12.9 0.00 0.00 0.00 69 1012.9
20260509031142 21 228 4.8 14.5 0.00 0.00 0.00 69 1012.9
20260509031043 21 239 4.8 14.5 0.00 0.00 0.00 69 1012.9
20260509030942 21 238 6.4 17.7 0.00 0.00 0.00 69 1012.8
20260509030838 21 230 6.4 17.7 0.00 0.00 0.00 69 1012.8
20260509030737 21 212 6.4 17.7 0.00 0.00 0.00 69 1012.8
20260509030648 21 250 6.4 17.7 0.00 0.00 0.00 68 1012.8
20260509030637 21 259 6.4 17.7 0.00 0.00 0.00 68 1012.8
20260509030537 21 235 6.4 17.7 0.00 0.00 0.00 69 1012.8
20260509030436 22 240 6.4 17.7 0.00 0.00 0.00 68 1012.8
20260509030331 22 228 6.4 17.7 0.00 0.00 0.00 68 1012.8
20260509030231 22 243 6.4 17.7 0.00 0.00 0.00 68 1012.8
20260509030146 22 226 6.4 17.7 0.00 0.00 0.00 68 1012.8
20260509030131 22 219 6.4 17.7 0.00 0.00 0.00 68 1012.8
20260509030031 22 250 4.8 17.7 0.00 0.00 0.00 68 1012.8
20260509025930 22 235 4.8 14.5 0.00 0.00 0.00 68 1012.7
20260509025827 22 241 4.8 14.5 0.00 0.00 0.00 68 1012.7
20260509025727 22 246 4.8 14.5 0.00 0.00 0.00 67 1012.7
20260509025647 22 229 4.8 14.5 0.00 0.00 0.00 67 1012.7
20260509025627 22 255 4.8 14.5 0.00 0.00 0.00 67 1012.7
20260509025526 22 242 4.8 14.5 0.00 0.00 0.00 67 1012.7
20260509025423 22 243 4.8 14.5 0.00 0.00 0.00 67 1012.6
20260509025407 22 262 6.4 14.5 0.00 0.00 0.00 67 1012.6
20260509025319 22 242 4.8 14.5 0.00 0.00 0.00 67 1012.7
20260509025255 22 233 6.4 14.5 0.00 0.00 0.00 67 1012.6
20260509025119 22 208 6.4 14.5 0.00 0.00 0.00 67 1012.6
20260509025019 22 229 6.4 14.5 0.00 0.00 0.00 67 1012.6
20260509024918 22 229 6.4 14.5 0.00 0.00 0.00 66 1012.6
20260509024813 22 232 4.8 14.5 0.00 0.00 0.00 66 1012.6
20260509024713 22 238 6.4 14.5 0.00 0.00 0.00 66 1012.6
20260509024645 22 270 6.4 14.5 0.00 0.00 0.00 66 1012.6
20260509024613 22 253 4.8 14.5 0.00 0.00 0.00 66 1012.6
20260509024513 22 225 4.8 12.9 0.00 0.00 0.00 66 1012.6
20260509024412 22 193 4.8 12.9 0.00 0.00 0.00 66 1012.6
20260509024404 22 226 3.2 12.9 0.00 0.00 0.00 65 1012.5
20260509024310 22 222 3.2 12.9 0.00 0.00 0.00 66 1012.6
20260509024255 22 246 3.2 12.9 0.00 0.00 0.00 65 1012.5
20260509024108 23 243 3.2 12.9 0.00 0.00 0.00 65 1012.5
20260509024007 23 256 3.2 14.5 0.00 0.00 0.00 66 1012.5
20260509023906 23 238 3.2 14.5 0.00 0.00 0.00 65 1012.5
20260509023806 23 230 4.8 14.5 0.00 0.00 0.00 65 1012.5
20260509023705 23 257 3.2 20.9 0.00 0.00 0.00 65 1012.5
20260509023642 23 226 3.2 20.9 0.00 0.00 0.00 65 1012.6
20260509023603 23 236 4.8 20.9 0.00 0.00 0.00 65 1012.6
20260509023502 23 228 4.8 20.9 0.00 0.00 0.00 65 1012.5
20260509023401 23 248 6.4 20.9 0.00 0.00 0.00 65 1012.6
20260509023300 23 238 6.4 20.9 0.00 0.00 0.00 65 1012.6
20260509023156 23 238 6.4 20.9 0.00 0.00 0.00 65 1012.5
20260509023145 23 233 6.4 20.9 0.00 0.00 0.00 65 1012.5
20260509023054 23 235 6.4 20.9 0.00 0.00 0.00 64 1012.5
20260509022955 23 245 6.4 20.9 0.00 0.00 0.00 64 1012.5
20260509022854 23 200 4.8 20.9 0.00 0.00 0.00 64 1012.5
20260509022752 23 242 4.8 14.5 0.00 0.00 0.00 64 1012.5
20260509022643 23 262 4.8 14.5 0.00 0.00 0.00 64 1012.5
20260509022549 23 256 4.8 14.5 0.00 0.00 0.00 64 1012.5
20260509022449 23 239 4.8 14.5 0.00 0.00 0.00 64 1012.5
20260509022409 23 219 6.4 16.1 0.00 0.00 0.00 64 1012.5
20260509022348 23 229 4.8 12.9 0.00 0.00 0.00 64 1012.5
20260509022301 23 242 4.8 16.1 0.00 0.00 0.00 64 1012.5
20260509022251 23 219 6.4 16.1 0.00 0.00 0.00 64 1012.5
20260509022045 23 223 6.4 16.1 0.00 0.00 0.00 64 1012.6
20260509021944 23 161 6.4 16.1 0.00 0.00 0.00 63 1012.6
20260509021845 23 123 6.4 16.1 0.00 0.00 0.00 63 1012.6
20260509021745 23 224 6.4 16.1 0.00 0.00 0.00 63 1012.5
20260509021646 23 255 6.4 16.1 0.00 0.00 0.00 63 1012.5
20260509021545 23 228 6.4 16.1 0.00 0.00 0.00 63 1012.5
20260509021444 23 259 6.4 16.1 0.00 0.00 0.00 63 1012.5
20260509021345 23 236 6.4 16.1 0.00 0.00 0.00 63 1012.5
20260509021245 23 246 6.4 16.1 0.00 0.00 0.00 62 1012.5
20260509021148 23 242 6.4 19.3 0.00 0.00 0.00 62 1012.5
20260509021044 23 243 6.4 19.3 0.00 0.00 0.00 62 1012.5
20260509020945 24 239 6.4 19.3 0.00 0.00 0.00 62 1012.5
20260509020845 24 233 6.4 19.3 0.00 0.00 0.00 62 1012.6
20260509020745 24 231 6.4 19.3 0.00 0.00 0.00 62 1012.5
20260509020646 24 242 8.0 19.3 0.00 0.00 0.00 62 1012.6
20260509020538 24 231 8.0 19.3 0.00 0.00 0.00 62 1012.6
20260509020438 24 215 8.0 19.3 0.00 0.00 0.00 61 1012.5
20260509020339 24 240 8.0 19.3 0.00 0.00 0.00 61 1012.5
20260509020238 24 266 8.0 19.3 0.00 0.00 0.00 61 1012.5
20260509020139 24 231 8.0 17.7 0.00 0.00 0.00 61 1012.5
20260509020031 24 229 8.0 17.7 0.00 0.00 0.00 61 1012.5
20260509015931 24 239 8.0 17.7 0.00 0.00 0.00 61 1012.6
20260509015831 24 232 6.4 17.7 0.00 0.00 0.00 60 1012.5
20260509015731 24 248 6.4 17.7 0.00 0.00 0.00 61 1012.6
20260509015633 24 248 6.4 17.7 0.00 0.00 0.00 61 1012.6
20260509015527 24 207 6.4 17.7 0.00 0.00 0.00 61 1012.5
20260509015425 25 255 4.8 17.7 0.00 0.00 0.00 61 1012.5
20260509015325 25 229 4.8 17.7 0.00 0.00 0.00 61 1012.5
20260509015224 25 240 3.2 17.7 0.00 0.00 0.00 61 1012.5
20260509015127 25 221 3.2 16.1 0.00 0.00 0.00 61 1012.5
20260509015059 25 208 6.4 17.7 0.00 0.00 0.00 60 1012.5
20260509015019 25 207 3.2 16.1 0.00 0.00 0.00 61 1012.5
20260509014950 25 271 4.8 16.1 0.00 0.00 0.00 60 1012.6
20260509014819 25 239 4.8 16.1 0.00 0.00 0.00 60 1012.5
20260509014735 25 215 4.8 16.1 0.00 0.00 0.00 60 1012.6
20260509014724 25 208 6.4 17.7 0.00 0.00 0.00 60 1012.5
20260509014513 25 284 6.4 17.7 0.00 0.00 0.00 60 1012.6
20260509014413 25 238 6.4 19.3 0.00 0.00 0.00 59 1012.6
20260509014312 25 222 8.0 19.3 0.00 0.00 0.00 59 1012.7
20260509014213 25 250 8.0 19.3 0.00 0.00 0.00 59 1012.7
20260509014115 25 232 8.0 19.3 0.00 0.00 0.00 59 1012.7
20260509014007 25 256 8.0 19.3 0.00 0.00 0.00 59 1012.7
20260509013906 25 239 8.0 19.3 0.00 0.00 0.00 59 1012.7
20260509013807 25 215 8.0 19.3 0.00 0.00 0.00 59 1012.7
20260509013707 25 250 8.0 20.9 0.00 0.00 0.00 59 1012.7
20260509013609 25 228 8.0 20.9 0.00 0.00 0.00 59 1012.7
20260509013500 25 207 8.0 20.9 0.00 0.00 0.00 59 1012.7
20260509013401 25 250 8.0 20.9 0.00 0.00 0.00 59 1012.7
20260509013301 25 222 8.0 20.9 0.00 0.00 0.00 59 1012.7
20260509013201 25 277 8.0 20.9 0.00 0.00 0.00 59 1012.7
20260509013102 25 260 8.0 20.9 0.00 0.00 0.00 59 1012.7
20260509012957 25 229 8.0 20.9 0.00 0.00 0.00 58 1012.7
20260509012855 25 236 9.7 20.9 0.00 0.00 0.00 58 1012.8
20260509012754 25 224 8.0 20.9 0.00 0.00 0.00 58 1012.8
20260509012655 25 221 8.0 20.9 0.00 0.00 0.00 58 1012.8
20260509012555 25 219 8.0 20.9 0.00 0.00 0.00 58 1012.8
20260509012449 25 204 6.4 20.9 0.00 0.00 0.00 58 1012.7
20260509012349 25 215 6.4 20.9 0.00 0.00 0.00 58 1012.8
20260509012248 26 229 4.8 20.9 0.00 0.00 0.00 58 1012.8
20260509012149 26 235 4.8 20.9 0.00 0.00 0.00 57 1012.8
20260509012051 26 232 4.8 20.9 0.00 0.00 0.00 57 1012.8
20260509011947 26 194 3.2 19.3 0.00 0.00 0.00 57 1012.8
20260509011847 26 243 3.2 19.3 0.00 0.00 0.00 58 1012.8
20260509011745 26 193 3.2 12.9 0.00 0.00 0.00 58 1012.8
20260509011645 26 236 3.2 12.9 0.00 0.00 0.00 58 1012.8
20260509011545 26 240 3.2 12.9 0.00 0.00 0.00 58 1012.8
20260509011436 26 270 3.2 12.9 0.00 0.00 0.00 58 1012.8
20260509011338 26 259 3.2 12.9 0.00 0.00 0.00 57 1012.7
20260509011300 26 284 4.8 12.9 0.00 0.00 0.00 57 1012.7
20260509011237 26 277 3.2 12.9 0.00 0.00 0.00 58 1012.8
20260509011153 26 274 4.8 12.9 0.00 0.00 0.00 57 1012.7
20260509011142 26 284 4.8 12.9 0.00 0.00 0.00 57 1012.7
20260509010931 26 207 4.8 17.7 0.00 0.00 0.00 57 1012.8
20260509010831 26 248 4.8 17.7 0.00 0.00 0.00 57 1012.8
20260509010731 26 256 4.8 17.7 0.00 0.00 0.00 57 1012.8
20260509010630 26 232 4.8 17.7 0.00 0.00 0.00 57 1012.8
20260509010532 26 237 4.8 17.7 0.00 0.00 0.00 57 1012.8
20260509010427 26 234 4.8 17.7 0.00 0.00 0.00 57 1012.8
20260509010324 26 284 4.8 17.7 0.00 0.00 0.00 56 1012.8
20260509010225 26 236 4.8 17.7 0.00 0.00 0.00 56 1012.8
20260509010125 26 238 4.8 17.7 0.00 0.00 0.00 56 1012.9
20260509010027 26 246 4.8 17.7 0.00 0.00 0.00 56 1012.8
20260509005919 26 253 4.8 14.5 0.00 0.00 0.00 57 1012.8
20260509005818 26 226 4.8 17.7 0.00 0.00 0.00 57 1012.8
20260509005750 26 224 6.4 17.7 0.00 0.00 0.00 57 1012.8
20260509005718 26 274 4.8 17.7 0.00 0.00 0.00 57 1012.8
20260509005636 26 204 6.4 17.7 0.00 0.00 0.00 57 1012.8
20260509005625 26 224 6.4 17.7 0.00 0.00 0.00 57 1012.8
20260509005415 26 191 6.4 17.7 0.00 0.00 0.00 56 1012.8
20260509005313 26 214 6.4 17.7 0.00 0.00 0.00 56 1012.8
20260509005212 26 262 8.0 17.7 0.00 0.00 0.00 56 1012.8
20260509005113 26 264 8.0 17.7 0.00 0.00 0.00 56 1012.8
20260509005014 26 259 8.0 17.7 0.00 0.00 0.00 56 1012.8
20260509004907 26 276 8.0 17.7 0.00 0.00 0.00 56 1012.8
20260509004806 26 220 6.4 17.7 0.00 0.00 0.00 56 1012.9
20260509004707 27 203 6.4 17.7 0.00 0.00 0.00 55 1012.8
20260509004607 27 218 4.8 17.7 0.00 0.00 0.00 56 1012.8
20260509004508 27 204 4.8 17.7 0.00 0.00 0.00 55 1012.8
20260509004400 27 255 4.8 17.7 0.00 0.00 0.00 55 1012.8
20260509004301 27 228 3.2 16.1 0.00 0.00 0.00 55 1012.8
20260509004200 27 208 3.2 12.9 0.00 0.00 0.00 55 1012.8
20260509004101 27 231 3.2 12.9 0.00 0.00 0.00 55 1012.8
20260509004004 27 236 3.2 11.3 0.00 0.00 0.00 55 1012.9
20260509003854 27 205 1.6 11.3 0.00 0.00 0.00 56 1012.9
20260509003755 27 233 1.6 11.3 0.00 0.00 0.00 55 1012.8
20260509003655 27 233 1.6 11.3 0.00 0.00 0.00 55 1012.8
20260509003555 27 248 1.6 11.3 0.00 0.00 0.00 55 1012.9
20260509003454 27 235 1.6 11.3 0.00 0.00 0.00 55 1012.9
20260509003349 27 248 1.6 11.3 0.00 0.00 0.00 54 1012.9
20260509003249 27 246 1.6 11.3 0.00 0.00 0.00 55 1012.9
20260509003148 27 261 1.6 11.3 0.00 0.00 0.00 54 1012.9
20260509003049 27 229 1.6 11.3 0.00 0.00 0.00 55 1013.0
20260509002958 27 207 1.6 9.7 0.00 0.00 0.00 55 1012.9
20260509002948 27 235 1.6 9.7 0.00 0.00 0.00 55 1012.9
20260509002845 27 235 3.2 14.5 0.00 0.00 0.00 55 1012.9
20260509002743 27 235 3.2 14.5 0.00 0.00 0.00 56 1012.9
20260509002642 27 235 4.8 14.5 0.00 0.00 0.00 55 1012.9
20260509002543 27 235 4.8 14.5 0.00 0.00 0.00 54 1012.9
20260509002459 27 228 4.8 14.5 0.00 0.00 0.00 55 1012.9
20260509002441 27 236 4.8 14.5 0.00 0.00 0.00 55 1013.0
20260509002341 27 232 4.8 14.5 0.00 0.00 0.00 55 1013.0
20260509002241 27 245 6.4 14.5 0.00 0.00 0.00 55 1013.0
20260509002139 27 219 6.4 16.1 0.00 0.00 0.00 54 1013.0
20260509002038 27 240 6.4 16.1 0.00 0.00 0.00 54 1013.0
20260509001956 27 240 6.4 16.1 0.00 0.00 0.00 54 1013.0
20260509001936 27 259 6.4 16.1 0.00 0.00 0.00 54 1013.0
20260509001833 27 208 6.4 16.1 0.00 0.00 0.00 54 1013.0
20260509001736 27 246 6.4 16.1 0.00 0.00 0.00 54 1013.0
20260509001632 27 238 6.4 16.1 0.00 0.00 0.00 54 1013.0
20260509001533 27 248 6.4 16.1 0.00 0.00 0.00 54 1013.0
20260509001458 27 198 6.4 16.1 0.00 0.00 0.00 54 1013.0
20260509001430 27 218 6.4 16.1 0.00 0.00 0.00 54 1013.1
20260509001325 27 231 6.4 16.1 0.00 0.00 0.00 53 1013.0
20260509001225 28 250 4.8 16.1 0.00 0.00 0.00 53 1013.1
20260509001124 28 226 4.8 12.9 0.00 0.00 0.00 54 1013.1
20260509001025 28 197 4.8 12.9 0.00 0.00 0.00 53 1013.1
20260509000958 28 229 4.8 12.9 0.00 0.00 0.00 53 1013.1
20260509000924 28 239 4.8 12.9 0.00 0.00 0.00 52 1013.1
20260509000825 28 239 4.8 12.9 0.00 0.00 0.00 52 1013.1
20260509000723 28 242 4.8 12.9 0.00 0.00 0.00 52 1013.1
20260509000620 28 243 4.8 12.9 0.00 0.00 0.00 53 1013.1
20260509000519 28 229 4.8 12.9 0.00 0.00 0.00 53 1013.1
20260509000458 28 239 4.8 12.9 0.00 0.00 0.00 53 1013.1
20260509000418 28 276 4.8 12.9 0.00 0.00 0.00 52 1013.1
20260509000319 28 240 4.8 12.9 0.00 0.00 0.00 52 1013.1
20260509000226 28 228 4.8 12.9 0.00 0.00 0.00 52 1013.1
20260509000219 28 275 4.8 12.9 0.00 0.00 0.00 52 1013.1
20260509000118 28 211 4.8 12.9 0.00 0.00 0.00 52 1013.1
20260509000109 28 235 4.8 12.9 0.00 0.00 0.00 52 1013.1
20260508235912 28 224 4.8 12.9 0.00 0.00 0.00 51 1013.1
20260508235809 28 245 4.8 12.9 0.00 0.00 0.00 51 1013.1
20260508235707 28 235 3.2 12.9 0.00 0.00 0.00 51 1013.1
20260508235606 29 236 3.2 11.3 0.00 0.00 0.00 51 1013.2
20260508235507 29 217 3.2 11.3 0.00 0.00 0.00 51 1013.2
20260508235454 29 233 3.2 11.3 0.00 0.00 0.00 51 1013.2
20260508235407 29 222 3.2 11.3 0.00 0.00 0.00 51 1013.2
20260508235306 29 242 3.2 11.3 0.00 0.00 0.00 51 1013.2
20260508235203 29 233 3.2 11.3 0.00 0.00 0.00 51 1013.2
20260508235103 29 211 1.6 9.7 0.00 0.00 0.00 50 1013.2
20260508235002 29 231 1.6 9.7 0.00 0.00 0.00 51 1013.2
20260508234952 29 232 1.6 9.7 0.00 0.00 0.00 51 1013.2
20260508234900 29 243 1.6 9.7 0.00 0.00 0.00 51 1013.2
20260508234800 29 259 1.6 11.3 0.00 0.00 0.00 51 1013.2
20260508234659 29 259 1.6 11.3 0.00 0.00 0.00 50 1013.2
20260508234557 29 259 1.6 11.3 0.00 0.00 0.00 51 1013.2
20260508234453 29 257 1.6 11.3 0.00 0.00 0.00 51 1013.2
20260508234354 29 148 1.6 11.3 0.00 0.00 0.00 51 1013.3
20260508234251 29 148 1.6 11.3 0.00 0.00 0.00 50 1013.3
20260508234149 29 148 1.6 11.3 0.00 0.00 0.00 51 1013.3
20260508234049 29 232 1.6 11.3 0.00 0.00 0.00 50 1013.3
20260508233949 29 232 3.2 11.3 0.00 0.00 0.00 52 1013.3
20260508233848 29 242 1.6 11.3 0.00 0.00 0.00 52 1013.3
20260508233748 29 242 1.6 8.0 0.00 0.00 0.00 52 1013.3
20260508233710 30 214 1.6 8.0 0.00 0.00 0.00 50 1013.3
20260508233642 29 253 1.6 8.0 0.00 0.00 0.00 51 1013.3
20260508233559 29 253 1.6 8.0 0.00 0.00 0.00 50 1013.3
20260508233441 30 211 1.6 8.0 0.00 0.00 0.00 50 1013.3
20260508233340 30 284 1.6 8.0 0.00 0.00 0.00 51 1013.4
20260508233236 30 284 1.6 8.0 0.00 0.00 0.00 51 1013.4
20260508233135 30 8 1.6 8.0 0.00 0.00 0.00 50 1013.4
20260508233034 30 115 0.0 8.0 0.00 0.00 0.00 50 1013.4
20260508232948 30 231 0.0 8.0 0.00 0.00 0.00 50 1013.4
20260508232935 30 212 0.0 8.0 0.00 0.00 0.00 50 1013.5
20260508232834 30 149 1.6 8.0 0.00 0.00 0.00 48 1013.5
20260508232736 30 149 1.6 8.0 0.00 0.00 0.00 49 1013.5
20260508232654 29 93 1.6 14.5 0.00 0.00 0.00 51 1013.5
20260508232632 30 150 1.6 8.0 0.00 0.00 0.00 50 1013.4
20260508232554 29 149 1.6 8.0 0.00 0.00 0.00 50 1013.4
20260508232544 29 149 1.6 8.0 0.00 0.00 0.00 49 1013.4
20260508232430 29 150 1.6 8.0 0.00 0.00 0.00 49 1013.4
20260508232329 29 149 1.6 8.0 0.00 0.00 0.00 49 1013.5
20260508232320 29 222 1.6 8.0 0.00 0.00 0.00 51 1013.5
20260508232124 29 236 3.2 8.0 0.00 0.00 0.00 50 1013.5
20260508232100 29 236 1.6 14.5 0.00 0.00 0.00 50 1013.5
20260508231921 29 162 1.6 14.5 0.00 0.00 0.00 51 1013.5
20260508231820 29 314 1.6 14.5 0.00 0.00 0.00 51 1013.5
20260508231721 29 314 1.6 14.5 0.00 0.00 0.00 52 1013.5
20260508231708 29 215 1.6 14.5 0.00 0.00 0.00 51 1013.5
20260508231619 29 216 1.6 14.5 0.00 0.00 0.00 52 1013.5
20260508231557 29 215 1.6 14.5 0.00 0.00 0.00 51 1013.5
20260508231417 29 236 1.6 14.5 0.00 0.00 0.00 51 1013.5
20260508231314 29 223 1.6 14.5 0.00 0.00 0.00 51 1013.5
20260508231209 29 113 1.6 14.5 0.00 0.00 0.00 50 1013.5
20260508231108 29 246 1.6 14.5 0.00 0.00 0.00 51 1013.5
20260508231009 29 222 1.6 6.4 0.00 0.00 0.00 51 1013.5
20260508230946 29 218 1.6 6.4 0.00 0.00 0.00 52 1013.5
20260508230909 29 232 1.6 6.4 0.00 0.00 0.00 52 1013.5
20260508230806 29 233 1.6 6.4 0.00 0.00 0.00 51 1013.6
20260508230703 29 221 1.6 6.4 0.00 0.00 0.00 50 1013.6
20260508230602 29 297 1.6 6.4 0.00 0.00 0.00 50 1013.6
20260508230445 29 298 1.6 9.7 0.00 0.00 0.00 49 1013.6
20260508230403 29 315 1.6 9.7 0.00 0.00 0.00 49 1013.6
20260508230301 29 8 1.6 9.7 0.00 0.00 0.00 49 1013.6
20260508230154 29 316 1.6 11.3 0.00 0.00 0.00 51 1013.6
20260508230054 29 223 1.6 11.3 0.00 0.00 0.00 51 1013.7
20260508225942 29 222 1.6 11.3 0.00 0.00 0.00 51 1013.7
20260508225855 29 222 3.2 11.3 0.00 0.00 0.00 51 1013.7
20260508225754 29 213 3.2 11.3 0.00 0.00 0.00 51 1013.7
20260508225651 28 232 3.2 11.3 0.00 0.00 0.00 51 1013.7
20260508225550 29 231 3.2 11.3 0.00 0.00 0.00 50 1013.7
20260508225454 29 206 3.2 11.3 0.00 0.00 0.00 50 1013.8
20260508225443 29 211 3.2 11.3 0.00 0.00 0.00 50 1013.8
20260508225351 29 235 3.2 11.3 0.00 0.00 0.00 52 1013.8
20260508225248 28 293 3.2 11.3 0.00 0.00 0.00 52 1013.8
20260508225207 28 212 3.2 9.7 0.00 0.00 0.00 50 1013.9
20260508225144 28 232 3.2 9.7 0.00 0.00 0.00 52 1013.8
20260508225102 28 212 3.2 9.7 0.00 0.00 0.00 51 1013.8
20260508225051 28 212 3.2 9.7 0.00 0.00 0.00 50 1013.9
20260508224845 28 232 3.2 9.7 0.00 0.00 0.00 51 1013.9
20260508224743 29 232 3.2 9.7 0.00 0.00 0.00 50 1013.9
20260508224636 29 239 1.6 9.7 0.00 0.00 0.00 49 1014.0
20260508224537 29 219 1.6 8.0 0.00 0.00 0.00 49 1014.0
20260508224443 29 224 1.6 8.0 0.00 0.00 0.00 49 1014.0
20260508224436 29 212 1.6 8.0 0.00 0.00 0.00 49 1014.0
20260508224337 29 210 1.6 8.0 0.00 0.00 0.00 51 1014.0
20260508224236 29 239 1.6 8.0 0.00 0.00 0.00 51 1014.0